GFSSW_prec_cloud_027.txt.gz
Cloud_Cover
4 2 93 100 100 100 3 4 5 0 0 0 0 9 100 8 5 1 19 100 100 100 100 100 100 100 100 100 100 100 100 100 100 100 100 97 100 100 100 100 90 100 100 100 100
26 82 34 32 100 65 6 10 5 0 0 0 45 100 100 54 76 47 94 22 100 100 100 100 100 100 100 100 100 100 100 100 100 100 100 100 100 74 97 92 91 100 100 100 100
6 4 13 6 28 8 0 4 0 0 0 66 100 100 100 96 84 12 0 53 100 100 100 100 100 100 100 100 100 100 100 100 100 100 100 100 99 100 100 100 100 100 100 100 100
100 9 1 1 100 76 0 0 4 10 95 99 19 35 100 11 2 3 0 5 1 3 100 100 100 100 100 100 100 100 100 100 100 100 100 100 100 98 100 100 100 100 100 100 100
100 6 5 4 80 0 0 2 61 100 100 98 71 9 26 71 77 0 0 0 0 2 29 92 100 100 100 100 100 100 100 100 98 100 98 100 100 100 100 100 100 100 100 100 100
99 9 16 4 5 0 5 67 100 69 90 100 94 100 88 36 3 2 0 0 0 0 0 0 0 15 41 98 92 80 100 100 100 100 100 100 100 100 100 100 100 93 100 98 67
33 65 100 37 0 14 100 100 100 100 100 100 100 16 11 0 0 0 0 0 0 0 0 0 0 0 0 0 1 5 10 21 100 100 100 100 100 100 100 52 8 1 2 4 4
99 5 20 15 6 100 100 100 100 100 44 14 2 0 0 0 0 0 0 0 0 0 0 0 0 0 0 0 0 0 0 2 0 3 92 71 91 84 12 10 0 0 0 0 2
95 100 100 100 100 100 100 100 100 100 65 39 2 3 0 2 2 1 0 0 0 0 0 0 0 0 0 0 0 0 36 1 0 0 0 0 19 2 0 0 0 0 0 0 0
100 100 100 100 100 100 100 100 97 90 100 40 5 1 21 67 16 5 5 5 2 0 0 0 0 0 0 1 78 3 0 0 0 0 0 0 0 0 0 0 0 0 0 0 0
100 100 100 100 100 100 100 100 100 50 2 0 5 52 44 56 23 4 0 0 0 0 0 0 1 4 0 0 0 0 0 0 0 0 0 0 0 0 0 0 0 0 0 0 0
100 100 100 100 100 100 100 100 3 0 4 9 62 85 7 0 0 0 0 0 0 0 0 0 0 0 0 0 0 0 0 0 0 0 0 0 0 0 0 0 0 0 0 0 0
100 100 100 100 100 100 100 19 2 1 45 80 38 10 1 0 0 0 0 0 0 0 0 0 0 0 0 0 0 0 0 0 0 0 0 0 0 0 0 0 0 0 0 0 0
100 100 100 100 100 46 99 18 96 100 100 19 5 0 0 0 0 0 0 0 0 0 0 0 0 0 0 0 0 0 0 0 0 0 11 0 26 3 0 0 0 0 0 0 0
12 100 100 95 48 87 91 100 100 99 58 5 1 0 0 0 0 0 0 0 0 0 0 0 0 0 0 0 0 0 0 0 0 0 0 0 0 7 0 0 0 0 0 0 0
100 98 77 13 23 99 100 100 65 5 5 2 0 0 0 0 0 0 0 0 0 0 0 0 0 0 0 0 0 0 0 0 0 0 0 2 0 68 20 4 1 0 0 0 0
60 90 95 95 100 100 99 52 40 8 4 2 0 0 0 0 0 0 0 0 0 0 0 0 0 0 0 0 0 0 0 4 24 33 37 4 0 32 0 0 0 1 5 0 0
100 100 100 100 100 100 97 69 5 5 5 0 0 0 0 0 0 0 0 0 0 0 0 0 4 0 0 0 0 0 0 3 4 3 16 0 0 9 0 0 0 0 0 0 0
100 100 100 100 100 74 39 8 5 5 0 0 0 0 0 0 0 0 0 0 0 0 1 0 0 0 0 0 0 5 4 0 0 1 0 0 3 0 0 0 0 0 0 0 1
100 100 94 69 75 81 34 10 50 3 0 0 0 0 0 0 0 0 0 0 0 0 0 0 2 0 0 0 0 0 0 3 21 44 1 20 36 95 5 0 5 4 3 3 5
100 100 82 72 67 49 12 26 5 0 0 0 0 0 0 0 0 2 2 0 0 0 0 0 0 1 5 1 0 4 5 2 1 2 5 4 16 2 7 10 33 21 5 5 5
100 86 75 76 12 5 5 5 5 1 0 0 0 0 0 0 5 5 2 0 0 0 0 0 0 0 0 1 4 0 0 0 5 5 23 4 70 0 0 2 5 0 5 9 61
95 95 61 10 8 6 5 5 8 5 5 1 0 1 5 5 3 0 0 0 0 0 0 0 0 0 0 0 1 0 3 4 1 5 5 5 4 47 12 25 44 88 98 74 91
66 77 82 5 28 13 33 68 75 46 31 4 5 4 0 0 0 0 0 0 0 0 0 5 5 5 5 4 0 0 0 5 5 5 20 7 94 100 100 100 97 98 96 61 59
72 63 46 17 13 66 98 79 52 46 10 5 5 5 0 0 0 0 0 0 0 0 0 0 0 0 0 2 1 0 4 5 5 20 96 17 99 100 100 98 88 78 69 70 100
45 8 69 34 5 58 59 62 51 40 50 51 38 15 5 0 5 2 0 0 0 0 2 2 4 0 0 0 0 0 0 5 5 5 100 94 100 97 90 88 95 86 100 100 100
48 88 55 7 8 10 24 83 61 51 40 65 33 19 5 5 5 2 0 0 0 2 4 0 1 3 21 7 5 10 0 1 5 95 100 100 100 86 92 75 80 68 77 54 95

GFSSW_prec_cloud_030.txt.gz
Cloud_Cover
0 0 1 0 87 100 79 0 0 5 6 0 5 5 0 0 0 1 0 100 100 100 100 100 100 100 100 100 100 100 100 100 100 100 100 100 100 100 100 100 100 100 100 100 100
10 12 27 8 5 25 9 0 1 5 0 0 0 0 0 2 2 5 3 89 100 100 100 100 100 100 100 100 100 100 100 53 100 97 94 57 100 100 98 97 100 100 100 100 100
96 54 13 4 94 0 0 0 45 7 0 0 0 0 1 51 45 46 61 5 100 100 100 99 99 100 100 100 100 100 100 100 100 100 100 100 100 100 100 100 100 100 100 100 100
98 19 35 93 0 10 0 85 97 0 0 4 0 1 66 86 57 63 70 0 0 86 86 100 100 100 100 100 100 100 100 100 100 100 100 100 100 100 100 100 100 100 100 100 100
33 3 7 100 9 78 1 2 6 2 4 0 16 100 100 100 53 23 0 0 0 5 96 100 100 100 100 100 100 100 100 100 100 100 100 100 100 100 100 100 100 100 100 100 100
8 44 98 100 1 100 48 2 4 5 58 100 100 100 40 48 18 1 3 34 5 2 1 47 91 100 100 100 100 100 100 100 100 100 100 100 100 100 100 100 100 100 100 100 100
65 100 100 8 13 100 0 62 100 100 100 100 100 98 100 100 100 100 26 0 0 0 0 0 4 99 100 96 34 96 100 100 100 100 100 100 100 100 100 100 100 100 100 100 100
99 90 26 93 97 2 56 100 100 100 94 51 100 100 100 100 88 3 0 0 0 0 0 0 0 0 0 0 0 0 0 6 82 80 100 74 100 100 81 6 56 22 23 28 96
32 5 100 87 5 80 100 100 100 100 100 100 94 84 45 1 0 0 0 0 0 0 0 0 0 0 0 0 0 0 27 36 0 0 0 0 45 36 0 0 2 0 0 0 4
74 9 9 74 98 100 100 100 100 26 100 100 22 2 5 3 1 0 0 0 0 0 0 0 0 0 0 14 97 99 22 6 0 0 0 2 10 1 0 0 0 0 1 3 4
100 100 76 100 100 100 100 100 100 100 100 75 6 28 5 15 5 6 4 8 5 5 5 2 5 96 82 0 0 0 0 0 0 0 0 0 0 0 0 0 0 0 0 0 0
100 100 100 100 100 100 100 100 37 100 37 23 13 6 36 28 12 42 50 52 57 28 5 5 19 1 0 0 0 0 0 1 0 0 0 0 1 0 0 0 0 0 0 0 0
100 100 100 100 100 100 100 100 100 12 44 5 30 98 82 65 91 64 58 84 5 5 1 3 2 0 0 0 0 0 0 0 0 0 0 0 2 0 0 0 0 0 0 0 0
100 100 100 100 100 79 100 24 12 5 5 49 76 93 80 78 56 5 5 3 0 0 0 0 0 0 0 0 0 0 0 0 0 0 1 3 1 13 0 0 0 0 0 0 0
100 100 100 100 22 100 100 41 5 18 100 98 67 70 64 33 5 0 0 0 0 0 0 0 0 0 0 0 0 0 0 0 0 0 0 0 1 82 3 4 0 0 0 0 0
100 100 100 100 100 100 97 15 100 98 52 19 46 40 6 4 0 0 0 0 0 0 0 0 0 0 0 0 0 0 0 0 0 0 0 0 4 100 100 93 9 0 0 0 0
100 100 100 100 92 100 64 100 95 46 16 6 6 5 0 0 0 0 0 0 2 0 1 0 0 0 0 0 0 0 0 6 42 92 50 92 40 79 6 96 15 0 0 0 0
100 100 75 100 72 87 100 89 50 24 28 5 5 0 0 0 0 0 0 0 0 0 13 6 6 0 0 0 0 0 0 4 4 0 10 12 6 6 1 36 95 3 0 0 0
100 94 5 11 99 100 96 86 91 58 29 5 2 0 0 0 0 0 1 0 0 0 1 0 0 0 0 0 0 6 5 0 0 0 0 0 6 20 57 90 5 0 0 19 5
89 54 99 100 100 100 87 91 35 12 5 5 0 0 5 0 0 4 1 0 0 0 0 0 2 0 0 5 3 0 3 4 85 12 5 5 54 88 61 5 5 57 45 90 6
100 100 100 100 100 100 100 78 75 53 5 2 2 0 5 2 5 5 2 0 0 0 0 0 0 0 0 0 0 1 2 2 3 3 3 6 91 13 36 99 92 100 97 40 5
100 100 100 100 100 77 98 75 99 21 5 0 0 0 4 2 5 2 0 0 0 0 0 0 0 0 0 0 0 0 0 2 3 2 0 36 86 4 2 5 5 6 7 9 20
100 100 100 84 84 89 54 69 79 11 5 1 0 0 0 5 0 2 0 0 0 0 0 0 0 0 0 1 0 0 0 0 0 2 0 34 3 63 100 73 100 92 88 45 84
100 100 100 69 94 72 11 72 75 15 5 4 1 0 3 2 5 1 0 0 0 0 0 0 3 5 5 4 3 4 5 5 4 5 16 7 28 48 56 100 100 84 85 94 94
100 100 43 93 79 56 6 59 47 7 5 5 5 5 5 5 4 4 1 0 0 0 0 0 0 0 0 0 0 0 0 0 0 4 75 33 96 100 94 65 83 84 12 9 23
100 95 10 56 70 73 20 46 5 11 5 5 5 8 5 5 5 5 2 0 0 0 0 0 0 0 0 0 0 0 0 0 3 5 70 99 18 5 80 98 9 5 5 5 5
95 13 10 70 50 64 27 32 29 5 5 5 5 14 28 5 5 5 2 0 0 1 3 0 0 0 0 2 5 0 5 4 5 62 80 82 92 98 58 5 5 29 20 15 33

GFSSW_prec_cloud_033.txt.gz
Cloud_Cover
59 27 33 0 0 0 0 0 0 0 0 3 2 0 4 5 2 0 1 2 58 94 100 100 100 100 100 100 100 100 100 100 100 100 100 100 100 100 100 100 100 100 100 100 69
100 100 77 18 0 0 12 4 0 0 0 5 0 0 4 5 5 1 36 4 3 100 100 100 100 100 100 100 100 100 100 100 100 100 100 100 100 100 100 96 100 100 99 99 100
100 100 100 54 4 39 89 1 0 0 3 0 0 0 4 5 5 5 8 0 2 68 100 100 100 100 100 100 100 100 100 100 100 100 100 100 100 100 100 100 100 100 91 57 100
100 100 97 11 57 100 3 0 5 59 100 5 5 0 0 51 19 76 61 83 5 54 100 100 100 100 100 100 100 100 100 100 100 100 100 100 100 100 100 100 98 100 100 100 100
100 90 12 14 6 100 2 5 40 100 100 76 1 1 0 22 92 88 100 89 5 2 100 100 100 100 100 100 100 100 100 100 100 100 100 100 100 100 100 100 100 100 100 100 100
96 5 5 22 67 76 85 5 100 100 39 26 4 5 54 99 99 85 45 5 5 0 46 100 100 100 100 89 89 100 100 100 100 100 100 100 100 100 100 100 100 100 100 100 100
6 5 5 90 100 20 90 2 100 59 5 5 67 100 100 100 100 15 4 5 25 96 47 84 100 100 100 100 100 100 98 98 100 100 100 100 100 100 100 100 100 100 100 100 100
5 5 53 97 99 1 76 0 30 99 95 100 100 100 91 40 45 100 100 46 23 5 5 0 1 58 100 100 100 100 100 81 64 100 100 100 100 100 99 98 99 100 100 100 100
99 10 76 100 5 4 1 11 100 100 100 100 100 99 58 100 100 100 100 34 14 2 0 0 0 0 0 0 3 100 100 100 100 99 100 80 8 0 4 60 61 68 49 45 47
67 39 75 7 36 10 100 100 100 100 100 100 100 100 100 100 100 100 31 3 0 0 0 0 0 0 5 0 5 2 17 37 0 0 0 0 2 4 0 0 0 0 2 2 0
100 32 54 6 15 100 100 100 100 100 100 100 89 100 52 75 5 5 0 0 0 0 0 0 0 0 0 2 77 5 3 0 0 0 0 0 0 0 0 0 0 0 0 0 0
100 95 7 87 100 100 100 100 100 100 100 100 31 8 100 95 45 3 0 1 5 9 5 4 0 0 5 0 0 3 0 0 0 0 0 0 0 0 0 0 0 0 0 0 0
100 88 100 100 100 100 100 100 100 100 100 16 100 81 40 43 47 35 42 5 5 5 5 5 1 0 0 0 0 0 0 0 0 0 0 0 0 0 0 0 0 0 0 0 0
75 100 100 100 100 100 100 100 100 33 100 72 86 94 49 68 68 28 5 5 5 4 5 0 0 0 0 0 0 0 0 0 0 0 0 0 0 2 0 0 0 0 0 0 0
100 100 100 99 97 100 100 100 100 100 74 90 54 96 87 74 22 40 5 5 3 4 0 0 0 0 0 0 0 0 0 0 0 0 0 0 0 0 8 5 0 0 0 2 0
100 100 100 100 100 100 100 95 61 89 32 100 80 87 87 65 25 5 5 0 0 0 0 0 0 0 0 0 0 0 0 0 0 1 0 1 0 5 74 0 5 16 5 57 5
100 100 100 100 38 100 25 5 35 99 100 68 84 60 52 21 5 0 0 0 0 0 0 0 0 0 0 0 0 0 0 0 2 5 4 24 75 98 100 95 4 1 4 5 5
100 100 100 18 98 100 41 83 100 70 58 58 50 33 14 5 1 0 0 0 0 3 4 2 0 0 0 0 0 0 0 0 0 0 0 2 64 35 65 54 98 92 91 90 5
100 100 100 58 100 100 46 100 100 30 52 15 14 18 5 0 0 0 1 0 0 0 1 3 0 0 0 0 0 0 0 3 2 5 3 1 1 5 61 84 100 100 100 92 68
100 100 100 100 86 88 100 84 13 24 29 5 5 5 3 0 0 0 0 0 0 0 0 0 0 0 0 0 0 0 0 0 1 1 2 0 3 5 5 5 5 84 100 95 99
100 100 28 14 63 100 100 60 27 18 5 5 5 5 34 4 4 11 0 0 0 0 0 1 0 0 0 0 0 0 0 0 0 0 2 17 3 5 81 20 56 19 99 50 90
100 100 5 80 99 100 86 17 36 17 5 5 5 0 7 5 12 4 0 2 0 0 0 0 0 0 0 0 0 0 0 5 5 3 0 4 1 2 54 7 56 100 96 99 100
99 27 100 100 100 100 77 56 34 12 5 5 5 0 0 0 1 0 5 3 0 0 0 0 0 0 0 0 0 0 0 0 0 0 5 4 0 29 89 10 99 73 70 62 99
100 100 100 100 100 100 92 71 72 5 5 5 5 0 0 0 0 0 5 0 0 0 0 0 0 0 0 0 0 0 0 0 0 0 0 1 5 6 27 58 5 16 38 5 5
100 100 100 100 100 97 55 70 56 27 6 5 5 0 0 0 3 5 0 0 0 0 0 0 0 0 0 0 0 0 0 0 0 0 0 0 77 95 21 5 16 76 84 74 97
100 100 100 100 84 85 57 35 16 48 6 5 5 2 2 5 5 4 2 0 0 0 0 0 0 0 0 0 0 0 0 0 0 0 0 4 68 38 5 6 5 5 5 5 5
100 100 100 100 100 100 35 6 37 15 18 5 5 5 5 6 6 5 5 5 5 5 1 2 5 8 5 6 1 0 5 4 3 0 1 5 5 5 1 5 5 8 23 45 96

GFSSW_prec_cloud_036.txt.gz
Cloud_Cover
56 98 100 100 100 51 3 0 0 0 0 0 0 0 1 4 0 4 2 1 1 98 100 97 99 100 100 100 100 100 100 100 100 100 100 100 100 100 100 100 100 100 100 100 100
63 100 100 100 100 47 0 5 5 4 0 0 0 2 1 0 0 5 5 4 8 100 100 100 100 100 99 100 100 100 100 100 100 100 100 100 100 100 100 100 100 100 100 100 100
30 100 100 100 100 7 1 5 5 5 0 0 0 5 0 0 3 35 6 81 100 100 100 100 100 100 100 100 100 100 100 100 100 100 100 100 100 100 100 100 100 97 100 100 100
77 100 100 100 98 7 2 6 24 0 0 0 12 3 0 0 9 85 81 100 92 100 100 100 100 100 100 100 100 100 100 100 100 100 100 100 100 100 100 100 100 100 100 98 99
94 100 100 100 22 4 16 100 2 0 8 30 79 5 0 0 6 89 100 44 6 52 18 100 100 100 100 100 100 100 99 89 100 100 100 100 100 100 100 100 100 100 100 100 100
100 88 96 7 5 5 50 100 0 4 100 100 100 11 1 2 50 72 85 94 88 11 5 55 92 100 100 100 100 100 100 82 100 100 100 100 100 100 100 100 100 100 100 100 100
78 60 92 5 5 23 100 68 0 100 100 100 99 32 91 95 100 100 100 99 100 91 70 97 80 100 100 100 100 100 100 100 100 94 100 100 100 100 100 100 100 100 100 100 100
5 62 13 5 9 18 100 37 0 96 6 5 33 100 96 100 100 100 100 100 75 86 58 45 57 62 100 100 100 100 100 100 100 100 100 100 100 100 100 100 100 100 100 100 100
5 12 5 5 33 100 45 33 1 16 98 73 100 100 100 100 100 100 96 23 29 20 62 24 22 51 100 100 100 100 100 100 100 100 92 66 99 100 95 37 47 97 98 100 34
6 5 5 5 100 10 2 1 6 100 99 100 100 100 100 100 62 34 62 98 7 5 5 20 55 23 36 60 100 100 100 100 100 100 100 100 100 55 85 86 53 44 14 2 0
100 69 2 5 20 0 4 12 100 100 100 100 100 37 94 54 99 100 100 100 10 5 25 5 4 5 7 98 30 29 5 5 19 45 2 0 4 36 1 0 0 0 0 0 0
5 32 97 78 12 23 100 100 100 100 100 100 100 100 100 100 100 100 100 96 16 0 0 2 0 0 5 3 78 5 5 0 0 0 0 0 0 0 0 0 0 0 0 0 0
97 9 72 86 52 100 100 100 100 100 100 100 100 100 100 53 87 60 6 0 0 0 1 4 1 4 0 1 4 4 0 0 0 0 0 0 0 0 0 0 0 0 0 2 18
93 6 91 77 100 100 100 100 100 100 100 25 100 100 100 82 21 17 6 4 5 17 33 5 5 4 1 2 0 0 0 0 0 0 0 0 0 0 0 0 0 0 0 76 100
67 26 100 100 100 100 100 100 100 100 100 5 100 47 5 22 51 22 36 83 61 39 5 3 0 0 0 0 0 0 0 0 0 0 0 0 0 0 0 0 0 0 3 100 100
86 91 100 100 100 100 100 100 100 100 28 24 81 92 12 15 58 37 58 16 5 5 0 0 0 0 0 0 0 0 0 0 0 0 0 0 0 0 0 0 8 5 54 92 63
100 95 100 100 100 100 100 100 81 100 87 77 56 96 74 81 47 65 30 5 1 0 0 0 0 0 0 0 0 0 0 0 0 2 3 2 3 5 9 28 5 75 6 39 65
100 100 100 100 100 100 100 100 72 66 84 38 76 80 70 79 67 44 5 0 0 0 0 0 0 0 0 0 0 0 0 0 0 0 0 0 0 0 5 54 5 75 88 80 99
85 100 100 100 100 100 100 100 38 7 35 58 73 86 80 91 73 5 0 0 0 1 0 0 0 0 0 0 0 0 0 0 0 0 0 0 0 4 16 42 99 94 95 95 89
100 100 100 100 100 100 48 76 82 59 36 58 59 69 74 42 5 0 0 0 0 2 2 0 0 0 0 0 0 0 0 0 0 0 0 0 1 5 6 72 70 40 5 22 52
100 100 100 100 100 100 68 95 5 14 30 32 57 53 22 4 2 0 0 0 0 0 0 0 0 0 0 0 0 0 0 0 0 0 0 4 0 3 5 6 28 65 100 100 88
100 100 100 46 100 100 100 67 58 61 10 6 5 5 5 5 2 0 0 0 0 0 0 0 0 0 0 0 0 0 0 0 0 0 0 0 1 0 5 36 27 52 99 90 100
100 100 100 100 100 100 99 41 78 5 5 5 5 5 5 5 0 0 0 0 3 5 4 0 0 0 0 0 0 0 0 0 0 0 0 2 0 3 5 5 5 5 76 78 62
100 100 100 100 46 61 72 49 55 43 5 5 5 5 5 0 0 0 0 0 0 1 4 5 1 0 0 0 0 0 0 0 0 0 0 0 0 0 2 4 4 3 5 5 5
100 100 97 59 100 100 100 69 64 11 5 5 5 15 5 2 0 0 0 0 0 0 0 0 0 0 0 0 5 5 0 0 0 0 0 0 0 0 0 4 5 5 5 5 35
100 100 81 90 57 84 67 43 44 40 5 5 38 90 6 2 0 0 1 5 5 5 5 5 2 2 0 0 4 0 0 0 0 0 0 0 0 0 5 5 5 5 5 87 94
100 100 78 62 100 84 69 5 72 31 78 100 93 5 5 5 5 5 5 5 10 7 24 7 22 6 5 6 5 5 5 0 0 0 0 0 0 0 0 4 5 5 5 5 5

GFSSW_prec_cloud_039.txt.gz
Cloud_Cover
3 66 100 100 100 97 18 61 2 2 0 12 3 1 0 0 1 0 5 3 5 25 8 93 92 57 100 98 100 100 100 100 93 100 100 100 100 100 100 100 100 100 100 100 100
17 23 35 100 100 100 98 87 5 0 0 0 0 0 0 0 5 5 5 4 34 10 21 100 20 94 100 100 100 98 100 100 100 100 100 100 100 100 100 100 100 100 100 100 100
13 15 7 67 100 100 99 0 0 0 0 1 0 0 0 5 10 5 5 5 100 84 100 100 100 100 46 94 100 100 100 100 100 100 100 100 100 100 100 100 100 100 100 100 100
0 8 0 26 100 100 100 0 0 0 5 5 0 0 0 3 1 2 5 40 100 97 100 42 50 100 100 100 100 100 100 100 100 98 100 100 100 100 100 100 100 100 100 100 100
0 17 5 87 100 90 10 0 3 4 37 0 0 0 6 4 1 4 27 100 88 15 40 64 82 99 100 100 100 100 100 100 100 100 100 100 100 100 100 100 100 100 100 100 100
6 22 100 95 10 5 5 0 5 9 11 5 5 7 5 5 3 5 100 100 96 100 100 100 100 100 100 100 100 100 85 100 100 100 100 100 99 100 100 100 100 100 100 100 100
16 100 100 5 5 4 5 51 5 9 1 98 93 68 4 54 60 95 100 100 100 100 83 100 100 100 100 100 100 100 100 99 99 100 52 100 100 100 100 100 100 100 100 100 100
98 98 14 5 2 5 41 97 71 1 98 100 89 98 100 87 100 100 100 100 96 28 48 94 99 100 100 100 100 100 100 100 100 100 100 100 100 100 100 100 100 100 100 100 100
21 24 5 5 5 5 40 100 66 5 8 56 8 100 100 100 100 100 100 100 96 100 65 59 95 73 100 100 100 100 100 100 100 100 100 100 100 82 100 100 100 99 94 84 49
5 5 5 2 4 5 84 100 5 24 1 79 100 93 31 99 100 100 100 100 100 100 15 21 64 38 68 99 100 100 100 100 100 90 100 100 100 99 100 66 89 93 65 45 92
5 5 5 0 4 34 37 4 0 96 100 100 100 100 100 96 100 100 100 100 78 5 90 65 55 35 7 36 25 19 43 80 93 100 100 100 100 100 100 100 100 100 100 81 5
5 19 100 8 3 2 0 10 100 77 68 100 100 100 100 100 100 87 9 62 83 35 30 19 12 51 5 5 5 5 5 5 5 17 11 86 100 98 17 29 15 35 2 0 5
95 5 5 5 5 0 72 100 100 95 100 100 100 96 94 94 100 100 100 99 96 87 4 3 5 5 54 5 5 5 4 5 3 2 3 5 1 0 0 0 0 0 0 0 6
81 5 2 1 6 52 100 98 99 100 100 100 100 100 100 100 100 100 94 17 5 0 0 0 0 0 0 0 0 0 0 0 0 0 0 0 0 0 0 0 0 0 0 4 68
40 16 0 0 100 88 99 100 93 100 100 100 100 100 100 100 23 5 3 0 0 0 2 3 2 5 2 0 0 0 0 0 0 0 0 0 0 0 0 0 0 0 0 35 100
49 4 1 42 100 91 100 100 100 100 100 87 68 70 9 10 29 31 5 5 5 5 5 1 1 0 0 0 0 0 0 0 0 0 0 0 0 0 0 0 1 5 61 100 100
40 2 93 100 97 100 100 100 100 100 100 87 64 6 5 5 48 65 10 5 5 5 5 0 0 0 0 0 0 0 0 0 0 0 0 0 0 0 0 0 1 5 5 11 89
93 99 44 100 97 100 100 100 100 91 84 70 38 49 36 70 16 5 5 39 5 5 0 0 0 0 0 0 0 0 0 2 0 0 0 0 0 0 0 0 5 5 4 83 89
100 58 37 100 100 100 100 98 93 81 14 58 89 91 96 41 79 61 7 6 1 0 0 0 0 0 0 0 0 0 0 0 0 0 0 0 0 0 0 0 5 5 63 74 69
93 52 95 100 100 100 100 100 5 52 59 79 54 52 12 96 55 23 32 2 0 0 0 0 3 1 2 0 0 0 0 0 0 0 0 0 0 0 0 2 5 5 5 5 5
90 43 100 87 100 100 100 100 98 4 5 52 94 42 67 86 57 70 9 0 0 0 0 0 0 2 0 0 0 0 0 0 0 0 0 4 0 0 0 0 5 5 4 5 5
37 71 100 100 100 100 100 100 42 5 9 74 54 72 52 87 60 6 2 0 0 0 0 5 2 0 0 0 0 0 0 0 0 0 0 4 1 0 0 0 3 5 5 5 5
100 100 100 100 100 100 88 13 20 8 76 60 85 65 90 61 5 2 0 0 1 5 0 0 0 0 0 0 0 0 0 0 0 0 0 1 0 0 0 0 2 2 5 5 5
100 100 100 100 100 100 100 79 8 73 73 100 85 53 66 27 5 0 0 0 1 4 2 0 1 5 0 2 0 0 0 0 0 0 0 0 0 0 0 0 0 3 5 5 5
100 100 100 100 100 100 100 100 42 87 100 98 49 68 58 35 5 0 0 0 0 0 0 1 5 2 0 0 0 0 0 0 0 0 0 4 2 0 0 0 0 2 5 5 32
100 100 100 100 100 100 100 100 57 62 100 95 74 49 14 5 16 6 5 4 0 0 0 4 5 5 5 5 5 5 0 3 5 5 5 5 5 0 0 0 0 3 5 5 60
100 100 100 100 100 100 71 7 76 71 100 90 16 5 5 22 81 33 5 5 5 5 9 18 28 23 10 8 63 79 7 5 5 5 5 5 5 5 4 5 5 4 5 28 98

GFSSW_prec_cloud_042.txt.gz
Cloud_Cover
0 5 46 100 59 100 100 100 62 5 4 18 15 3 16 0 0 24 25 3 5 4 8 5 30 10 6 88 96 100 100 51 89 93 99 100 100 100 100 100 100 100 100 100 100
29 100 100 100 0 84 100 100 100 19 51 40 4 5 5 1 19 3 4 0 5 5 4 5 18 5 70 71 98 91 99 100 100 100 100 100 100 100 100 100 100 100 100 100 100
8 11 16 97 21 76 100 100 100 58 8 1 2 0 0 2 0 18 4 0 5 5 5 52 68 30 67 95 99 100 100 100 100 100 100 100 100 100 100 100 100 100 100 100 100
0 0 14 93 25 90 100 100 70 3 0 1 0 3 5 0 3 5 5 0 27 7 11 40 84 92 80 93 100 100 100 100 100 100 100 100 100 100 100 100 100 100 100 100 100
0 0 17 67 15 96 100 95 5 0 0 0 0 5 2 0 5 3 0 4 68 9 100 84 100 100 100 99 100 100 100 100 100 100 100 100 100 100 100 100 100 100 100 100 100
0 1 30 32 73 100 82 5 0 1 3 4 2 0 2 49 4 0 3 50 99 96 100 95 100 100 100 100 100 100 100 100 100 100 100 100 100 100 100 100 100 100 100 100 100
0 13 20 3 100 80 3 5 5 5 75 5 2 6 78 71 13 3 99 100 100 87 74 100 100 100 100 100 100 100 100 100 100 100 100 100 99 100 100 100 100 100 100 100 100
0 24 0 0 5 6 4 5 6 100 94 3 57 100 100 72 19 97 71 90 80 100 100 100 97 100 100 94 100 100 100 100 100 100 100 100 100 100 100 100 100 100 100 100 99
0 1 0 0 70 6 5 4 28 100 91 67 81 54 64 92 96 87 100 100 100 100 100 100 100 100 100 100 100 100 100 100 100 100 100 100 99 100 100 78 27 55 40 29 83
0 0 0 0 5 5 2 5 100 100 32 93 5 35 100 11 96 100 76 43 100 100 100 100 100 100 96 100 100 100 100 100 100 100 100 100 66 38 99 99 100 99 81 95 52
0 0 0 0 5 8 1 74 70 41 5 22 70 59 100 100 100 78 44 89 79 100 96 100 92 100 100 42 58 100 100 100 100 100 100 100 100 100 100 100 90 75 95 97 100
0 0 0 0 5 5 5 5 5 1 3 42 74 100 100 100 100 84 100 100 100 100 83 95 90 46 85 41 6 9 66 100 100 100 100 100 100 100 100 73 66 80 5 12 60
0 0 2 5 5 1 1 5 0 32 94 100 100 79 78 100 97 100 100 63 59 6 13 30 24 6 5 10 10 37 66 93 77 82 100 88 73 88 49 54 76 35 5 5 4
0 0 8 13 5 5 5 30 100 100 100 100 100 100 100 100 100 100 11 8 28 24 5 17 22 16 11 12 16 13 9 5 5 25 5 6 14 15 11 4 1 0 0 0 0
0 0 71 11 1 0 15 71 84 100 100 100 100 93 45 79 66 99 95 99 62 5 4 2 0 4 4 0 0 0 0 0 3 0 0 0 0 0 0 0 0 0 0 0 0
0 0 99 28 0 54 71 67 23 100 100 100 82 69 100 98 100 100 76 5 2 3 0 0 1 3 5 5 4 0 0 0 0 0 0 0 0 0 0 0 0 0 5 5 5
0 8 52 10 35 12 49 7 81 100 100 100 100 100 100 96 8 5 4 1 3 3 4 5 6 5 1 0 2 0 0 0 0 0 0 0 0 0 0 0 0 0 1 5 5
0 95 31 1 79 20 63 99 100 100 100 100 100 100 4 5 5 31 36 18 5 5 5 5 5 0 0 0 0 0 0 0 0 0 0 0 0 0 0 0 0 0 0 4 5
10 100 78 4 44 61 100 100 100 100 48 26 34 6 8 59 19 5 55 9 5 5 5 0 0 0 0 0 0 0 0 0 0 0 0 0 0 0 0 0 0 1 5 5 5
91 100 6 20 6 99 100 100 100 98 39 100 51 43 81 69 7 5 50 5 5 2 0 0 0 0 0 0 0 0 0 0 0 0 0 0 0 0 0 0 0 0 1 0 0
99 51 3 22 36 100 98 100 100 56 5 13 34 40 48 10 5 5 5 5 5 0 0 0 0 0 0 0 0 0 0 0 0 0 1 4 0 0 0 0 0 2 5 1 3
53 98 5 67 88 96 100 100 94 5 5 5 6 39 38 5 42 23 5 5 5 0 0 0 0 0 0 0 0 0 0 0 0 0 1 4 1 0 0 0 0 0 0 2 3
79 100 5 66 100 100 100 100 11 8 5 5 8 5 59 78 34 5 39 5 2 0 0 0 0 0 0 0 0 0 0 0 0 0 0 1 0 0 0 0 0 0 0 1 5
87 100 99 100 100 100 100 100 100 55 18 12 30 34 87 30 5 5 5 1 0 0 0 0 0 0 0 5 5 4 0 0 0 0 0 2 5 5 0 0 0 3 4 3 5
5 5 98 100 100 100 100 99 23 5 81 92 16 64 54 5 5 5 5 5 1 0 0 0 3 5 5 5 2 4 0 5 2 5 5 5 5 5 5 5 0 4 0 1 5
6 98 100 100 100 100 100 81 6 45 100 69 28 53 9 49 67 28 26 5 3 5 5 5 5 5 4 5 5 5 5 5 5 5 5 5 5 5 5 4 5 5 5 5 5
51 100 100 100 100 100 100 100 100 83 77 59 67 58 43 64 92 83 61 5 5 5 5 6 6 5 5 5 19 99 5 5 5 5 5 5 5 5 5 62 100 36 28 88 6

GFSSW_prec_cloud_045.txt.gz
Cloud_Cover
0 21 100 100 100 83 0 100 100 100 100 100 20 19 100 45 4 3 0 1 0 5 5 5 53 44 45 64 5 62 100 97 49 66 97 100 100 100 100 100 84 100 100 100 100
10 39 21 100 100 100 11 100 100 100 51 87 58 79 99 94 35 5 5 4 5 3 5 5 9 83 40 89 59 99 99 86 87 84 100 100 100 100 100 100 95 100 100 100 100
6 13 14 29 99 100 3 94 100 100 14 65 32 5 19 8 5 2 0 5 5 5 9 60 21 100 100 85 100 96 97 79 98 100 100 100 100 100 100 100 100 100 100 100 100
0 1 0 16 100 94 0 100 100 83 75 91 23 5 5 5 0 0 0 3 5 4 6 99 73 58 100 100 100 100 98 100 100 100 100 100 100 100 100 100 100 100 100 100 100
0 0 0 18 100 100 100 100 97 2 5 15 17 0 0 0 0 0 1 0 4 5 88 100 100 100 100 96 100 100 100 100 100 100 100 100 100 100 100 100 100 100 100 100 100
0 0 0 23 29 3 1 5 5 0 4 4 2 0 1 0 0 4 1 58 100 96 100 100 100 100 100 100 100 100 100 100 100 100 100 100 100 100 100 100 100 100 100 100 100
0 0 0 30 12 6 0 2 79 5 5 2 0 1 0 0 13 5 1 100 100 100 100 100 100 100 100 100 100 100 100 100 100 100 100 100 100 100 100 100 100 100 100 100 100
0 0 0 11 0 0 0 2 5 5 3 5 8 28 1 64 100 24 99 99 100 100 100 100 100 100 100 100 100 100 100 100 100 100 100 100 100 100 100 100 100 97 100 100 100
0 0 0 0 0 0 0 2 5 5 5 32 82 94 52 98 7 100 100 82 100 100 100 100 100 100 100 100 100 100 100 100 100 100 100 100 100 100 100 100 100 100 100 100 100
0 2 0 0 0 0 0 1 3 71 5 50 74 4 2 1 56 100 75 35 100 100 100 100 100 100 100 100 97 100 100 100 100 100 100 100 100 100 100 100 100 100 100 100 72
1 2 0 0 0 0 0 1 18 44 5 22 73 5 4 60 88 100 100 100 100 100 100 100 99 99 100 100 100 100 100 100 100 100 100 100 100 100 100 100 88 62 60 6 8
8 5 4 0 0 0 0 4 5 4 5 3 5 5 90 92 100 100 100 100 100 100 100 100 100 100 100 99 88 96 100 100 100 100 100 100 100 100 100 100 95 100 100 100 100
19 3 0 0 0 0 0 2 6 46 7 4 35 14 100 17 99 97 84 100 100 100 100 89 81 83 92 65 58 84 75 67 89 99 100 100 97 94 82 14 39 100 84 63 72
5 1 0 0 0 0 0 2 5 5 0 29 100 98 5 6 26 66 97 100 100 100 88 100 60 60 61 26 73 89 60 39 30 46 76 98 100 64 25 44 20 54 74 8 5
17 2 0 0 0 0 0 2 0 0 30 64 72 28 94 99 100 100 100 99 97 59 31 30 21 61 44 62 70 91 94 93 81 85 99 64 41 5 5 2 1 0 4 3 0
98 3 0 1 0 0 0 0 0 5 11 28 29 100 100 100 100 100 41 28 46 69 28 5 5 5 5 5 5 9 46 38 9 4 4 4 3 0 0 0 0 0 0 4 3
99 2 0 0 0 0 0 0 0 30 28 93 100 100 100 81 68 100 100 55 20 6 1 0 0 1 1 2 1 0 2 3 2 0 0 0 0 0 0 0 0 0 0 0 0
97 6 1 0 0 0 1 2 5 29 38 100 42 92 74 99 100 100 32 4 5 0 0 2 0 0 0 0 0 0 0 0 0 0 0 0 0 0 0 0 0 0 0 0 0
15 47 0 0 0 4 0 97 12 7 84 99 99 100 100 96 5 5 5 4 4 5 6 5 1 0 0 0 0 0 0 0 0 0 0 0 0 0 0 0 0 0 0 0 4
0 0 0 0 0 6 0 63 32 100 100 100 100 98 8 5 6 6 5 5 4 2 0 4 2 0 0 0 0 0 0 0 0 0 0 0 0 0 0 0 0 0 0 2 2
0 0 0 5 3 4 2 96 100 100 100 42 21 22 4 45 14 5 5 4 1 4 4 0 0 0 0 0 0 0 0 0 0 0 0 0 0 0 0 0 0 0 0 1 0
0 0 0 0 10 5 13 100 100 100 100 77 35 5 66 5 5 5 44 5 5 4 0 0 0 0 0 0 0 0 0 0 0 0 1 0 0 0 0 1 5 5 5 5 5
0 3 8 1 1 40 87 100 100 100 79 64 14 29 11 5 12 13 5 5 5 5 0 0 0 0 0 0 0 0 0 0 0 0 0 1 1 6 5 5 5 5 5 5 5
0 2 59 61 5 100 100 100 100 100 73 5 9 27 5 5 5 5 5 5 5 2 0 0 0 0 0 0 0 0 0 0 0 0 0 4 5 7 5 5 5 5 5 5 5
0 7 92 14 5 100 100 100 100 100 29 2 84 5 8 5 5 5 5 5 3 0 0 0 0 0 0 3 2 0 0 0 0 0 5 5 5 5 5 5 5 5 5 5 5
10 100 99 100 99 100 100 100 100 32 73 47 31 5 5 5 5 5 5 5 5 4 0 3 5 0 1 5 5 6 1 3 5 5 5 79 65 5 5 5 5 2 5 5 4
100 100 100 100 100 100 100 100 100 100 100 39 5 58 5 45 21 34 23 5 5 5 5 5 0 5 5 5 25 100 2 5 5 5 19 76 5 16 22 75 97 36 5 5 10

GFSSW_prec_cloud_048.txt.gz
Cloud_Cover
0 0 89 88 90 69 100 69 4 99 100 99 19 23 16 5 60 33 1 2 13 5 5 5 6 19 73 38 13 5 7 100 100 100 67 60 86 100 100 98 100 98 99 100 100
7 7 13 29 15 100 100 75 0 98 100 68 18 58 7 6 96 82 7 42 10 5 5 33 34 12 89 68 60 22 11 100 96 64 100 95 100 100 100 100 100 86 33 100 100
0 0 0 3 1 100 100 38 0 12 48 20 4 14 19 63 5 5 4 2 12 5 0 6 5 46 66 58 85 100 82 74 96 81 98 100 100 100 100 100 100 99 100 100 100
0 0 0 0 14 100 100 92 0 23 50 20 23 4 0 5 27 5 97 5 5 5 5 5 18 60 99 100 100 100 100 100 100 100 100 100 100 100 100 100 100 100 99 75 50
0 0 0 0 19 92 12 100 13 22 10 4 5 0 0 2 0 0 0 4 5 13 5 3 27 96 100 100 100 100 100 100 100 100 100 100 100 100 100 100 100 100 100 92 100
0 0 0 0 0 5 0 0 0 0 0 0 0 0 0 0 0 0 0 2 51 44 39 6 88 98 100 100 100 100 100 100 100 100 100 100 100 100 100 100 100 97 100 85 84
0 0 0 5 10 0 0 0 0 0 0 0 0 0 0 0 0 0 4 74 100 76 12 77 100 100 100 100 100 100 100 100 100 100 100 100 100 100 100 100 100 100 100 100 100
0 0 0 5 9 0 0 0 0 0 0 0 0 0 5 2 2 77 31 100 79 76 95 100 100 100 100 100 100 100 100 100 100 100 100 100 100 100 100 100 100 100 100 100 100
3 1 1 5 1 0 3 0 0 0 0 0 0 0 3 0 99 69 99 99 5 96 100 100 100 100 100 100 100 100 100 87 100 100 100 100 100 100 98 100 98 100 100 97 100
5 5 2 89 5 0 4 0 0 0 0 3 5 3 0 30 30 52 100 93 86 93 100 100 100 100 100 100 100 100 100 100 100 100 99 100 100 100 100 100 100 100 100 100 100
5 5 5 11 5 4 1 0 0 0 0 3 5 15 0 34 2 95 100 99 100 100 100 100 100 100 100 100 100 100 100 100 100 100 100 100 100 100 100 100 100 100 100 100 100
8 35 5 5 22 5 0 0 0 0 0 29 100 4 0 69 50 100 45 100 100 100 100 100 100 100 100 100 99 100 100 100 100 100 100 100 100 100 100 100 100 86 84 93 96
5 92 5 38 100 5 0 0 0 0 0 37 74 0 2 100 87 100 92 100 100 100 100 100 100 100 100 100 100 100 100 100 100 100 100 100 98 71 14 10 66 94 92 97 77
6 70 96 100 82 64 0 0 0 0 0 6 1 0 5 100 51 35 6 78 100 100 100 100 94 97 100 100 100 100 67 78 74 90 100 91 84 100 100 99 99 99 100 91 96
100 100 100 100 49 5 0 0 0 0 0 0 0 43 15 3 4 76 61 100 100 100 100 100 100 98 99 99 100 100 100 86 62 44 15 14 12 25 94 72 68 40 57 85 35
100 100 100 100 70 3 0 0 0 1 0 0 8 5 3 2 93 100 100 100 100 100 100 99 82 81 86 92 82 90 91 96 72 32 30 42 6 84 38 33 10 3 1 0 0
100 100 100 100 5 11 0 0 2 4 0 3 5 5 5 30 99 94 67 98 100 92 43 22 34 70 68 84 73 76 45 14 5 6 8 2 0 0 0 0 0 0 0 0 0
100 100 100 100 5 1 5 0 5 0 0 2 1 8 5 47 6 9 36 56 96 34 5 5 5 10 5 5 4 5 5 5 5 3 0 0 0 0 0 0 0 0 0 0 0
100 94 55 90 32 0 5 1 0 0 1 5 5 6 5 15 81 100 100 38 5 5 0 0 5 3 3 8 28 29 6 5 5 0 0 0 0 0 0 0 0 0 0 0 0
90 84 33 5 10 5 48 0 2 0 9 80 77 73 12 100 100 100 48 0 2 0 0 3 5 5 5 5 5 5 4 0 0 0 0 0 0 0 0 0 0 0 0 0 0
97 67 78 54 100 8 12 0 0 0 77 100 100 15 97 100 54 5 0 0 5 14 5 5 4 5 0 0 0 0 0 0 0 0 0 0 0 0 0 0 0 1 4 5 5
30 94 100 99 67 73 5 0 0 2 99 100 100 100 100 93 2 1 4 5 4 5 4 5 2 0 0 0 0 0 0 0 0 0 0 0 0 0 0 0 3 5 5 5 5
100 100 100 100 100 18 89 0 0 50 100 100 100 100 76 7 6 17 5 4 4 2 4 0 0 0 0 0 0 0 0 0 0 0 0 25 0 0 4 5 5 5 5 5 5
100 100 100 11 43 7 6 0 0 85 100 100 100 45 79 7 24 43 5 5 5 5 5 3 0 0 0 3 1 0 0 0 0 0 0 0 3 5 5 5 5 5 5 5 5
97 80 97 65 0 4 10 0 20 100 100 100 87 72 5 5 9 45 6 58 6 5 5 0 0 0 5 5 2 5 0 0 0 0 2 2 5 5 7 16 17 5 5 5 5
4 4 0 1 5 86 19 0 87 100 100 100 49 27 5 5 58 83 68 19 5 5 0 0 0 5 5 5 5 5 5 0 0 0 0 4 4 0 5 5 5 5 12 70 5
4 72 0 64 90 84 20 46 100 100 100 89 23 13 5 63 52 47 11 5 5 5 0 0 2 5 5 5 5 55 1 0 0 0 0 3 5 5 11 16 5 5 77 47 16

GFSSW_prec_cloud_051.txt.gz
Cloud_Cover
5 2 0 0 0 0 0 0 21 0 0 13 80 12 15 68 5 2 54 57 6 85 4 4 5 5 5 5 19 92 84 91 100 65 69 91 4 42 85 86 97 64 69 37 15
3 0 1 0 0 0 17 11 18 4 0 23 20 14 3 5 4 65 83 91 6 86 74 31 96 59 24 92 74 100 100 95 54 91 100 100 81 18 65 54 100 84 96 91 6
0 0 3 0 0 0 14 2 74 2 4 100 18 5 0 14 0 3 18 5 5 28 20 77 40 89 11 94 99 100 100 60 75 100 100 100 21 5 81 100 100 99 78 82 15
0 5 6 5 0 0 32 0 59 23 2 38 12 0 0 0 0 1 5 40 5 5 5 5 5 5 5 88 93 98 100 100 76 100 100 5 5 12 100 100 99 100 99 34 73
5 5 33 6 2 0 0 0 0 8 21 17 0 0 4 0 0 0 1 0 1 4 5 5 5 7 96 87 88 100 100 100 100 100 82 23 61 100 100 100 91 53 71 96 70
87 67 7 100 96 4 2 3 4 7 4 0 0 32 0 0 0 2 5 0 3 5 5 78 24 100 99 90 100 100 100 100 100 100 100 99 100 100 100 100 100 66 85 93 100
5 20 29 100 100 15 3 5 6 2 8 0 0 0 0 0 0 1 4 24 26 5 5 54 42 100 89 100 100 100 100 100 100 89 63 100 100 100 100 100 100 100 100 94 100
13 84 100 100 5 4 5 5 5 2 4 0 0 0 1 4 1 0 0 100 80 100 8 51 92 100 100 100 100 100 100 100 100 94 91 100 100 100 100 100 100 100 100 100 100
79 5 74 100 5 1 5 5 2 0 3 1 1 0 3 5 9 30 100 96 100 84 17 74 100 100 100 100 100 100 100 100 100 100 100 100 100 100 100 100 100 100 100 100 100
100 88 100 100 20 19 41 8 0 33 18 0 0 0 4 4 80 99 8 93 93 20 68 100 100 100 100 100 100 100 100 100 100 100 100 100 100 100 100 100 100 66 100 99 100
100 100 100 16 5 30 46 5 2 37 5 0 0 1 5 0 0 0 19 100 18 59 100 100 100 100 100 100 100 100 100 100 100 100 100 100 100 100 100 100 100 100 100 100 100
100 100 100 53 74 61 23 5 25 5 40 0 0 3 5 0 46 5 20 93 100 100 100 100 100 100 100 100 100 100 100 100 100 100 100 100 100 100 100 100 100 100 100 100 100
100 100 100 100 99 96 27 10 100 56 92 0 0 5 2 0 43 10 31 96 100 100 100 100 100 100 100 100 100 100 100 100 100 100 100 100 100 100 100 100 100 100 100 100 100
100 100 100 100 99 83 23 94 96 98 55 0 0 1 0 0 12 67 61 48 100 100 100 100 100 100 100 100 98 100 100 100 100 100 100 100 100 100 100 100 100 100 64 57 77
100 100 100 100 81 33 83 95 73 5 46 0 0 0 0 3 9 4 34 5 87 100 100 100 100 75 100 98 100 100 100 100 100 100 100 100 100 100 100 100 100 100 100 99 86
100 100 100 100 36 96 93 100 27 14 28 0 0 0 0 5 3 1 5 57 100 100 95 100 100 100 100 100 100 100 100 100 99 99 98 98 100 100 100 88 66 65 44 56 50
100 100 100 67 56 97 100 100 43 5 2 0 0 0 0 1 0 100 100 100 100 100 100 100 100 100 100 100 100 100 99 100 99 100 84 99 96 100 43 22 7 5 8 5 2
100 100 100 100 100 100 100 64 36 10 5 0 0 0 5 2 58 92 69 94 88 100 98 100 100 94 83 80 92 68 97 100 51 99 100 15 5 5 5 4 5 0 0 0 0
100 100 100 100 100 85 88 25 77 9 4 0 0 0 5 77 67 77 78 66 27 83 100 99 100 48 59 34 5 10 5 5 5 5 5 16 17 5 1 0 0 0 0 2 0
100 100 100 100 100 100 49 54 11 10 0 0 0 0 5 11 11 15 78 9 27 7 5 56 97 5 4 2 2 1 4 5 5 5 1 35 1 29 0 0 0 0 0 0 0
100 100 100 100 100 54 42 100 75 4 0 0 2 5 5 5 34 99 98 96 4 4 5 2 2 32 4 5 5 5 5 5 3 2 0 0 2 0 0 0 0 0 0 3 3
100 100 100 100 100 77 74 99 58 5 0 0 0 26 15 10 100 100 100 86 6 3 0 1 5 5 5 5 5 5 1 0 0 0 0 0 0 0 0 0 0 0 0 5 5
100 100 100 100 76 89 100 73 72 5 0 0 0 14 99 79 100 100 100 43 5 4 5 5 4 5 5 1 0 0 0 0 0 0 0 19 0 0 0 0 0 0 5 5 5
100 100 100 96 100 100 99 100 79 1 1 5 2 42 63 100 100 100 35 5 5 41 5 5 5 5 5 60 39 2 1 0 0 0 0 0 0 0 0 1 4 4 5 5 5
99 100 45 69 100 100 100 82 31 5 4 0 5 86 100 100 100 50 13 37 39 7 56 5 5 5 1 1 1 1 2 0 0 0 5 0 0 0 5 5 5 5 5 5 5
100 100 81 99 100 100 96 100 44 3 1 1 39 100 100 100 97 22 14 5 31 25 69 18 5 5 0 0 5 0 5 0 0 0 5 0 0 0 5 5 5 5 5 5 5
100 100 95 100 100 97 76 94 38 5 2 26 68 100 100 75 75 39 55 9 60 59 65 5 5 5 0 0 5 5 0 0 1 5 5 5 5 5 4 2 5 5 5 5 5

GFSSW_prec_cloud_054.txt.gz
Cloud_Cover
83 5 6 6 1 0 0 0 4 5 13 5 28 24 4 0 0 0 4 22 28 5 0 1 0 0 5 64 5 5 4 6 94 69 92 7 56 100 100 100 96 100 53 38 100
22 48 15 5 0 0 2 5 5 85 19 11 6 0 0 2 0 0 0 4 10 29 10 5 2 2 81 84 86 5 28 95 69 85 81 87 100 100 100 100 100 85 69 93 100
53 46 5 5 0 2 2 5 6 40 7 5 5 0 0 0 0 0 0 0 5 5 3 98 34 58 90 90 100 96 97 100 42 64 79 100 100 100 100 100 100 100 98 100 95
7 5 5 5 0 5 5 0 99 52 7 16 14 2 0 0 25 0 0 0 0 2 7 8 100 94 100 98 100 100 100 100 55 11 41 100 100 100 100 79 96 99 89 10 21
74 22 5 1 4 4 5 2 39 5 4 43 5 0 0 0 0 0 0 0 0 0 0 12 5 5 87 86 98 100 100 100 100 14 92 100 100 100 100 98 88 54 99 87 37
84 5 5 3 18 58 17 5 5 5 0 29 5 10 0 0 0 3 2 0 5 0 0 5 5 5 32 96 100 100 100 99 100 100 45 100 100 100 92 86 100 45 60 97 100
9 27 5 5 95 97 54 5 18 5 3 5 45 5 1 0 0 0 0 0 3 4 4 5 15 59 49 100 82 100 100 93 100 100 100 100 98 50 5 100 100 51 100 64 100
6 5 5 5 94 100 97 62 71 5 5 5 6 5 0 0 0 0 0 0 5 3 2 6 72 45 100 100 100 100 100 97 100 100 100 100 99 94 88 100 100 73 100 100 100
98 40 27 94 99 100 100 48 31 5 5 13 32 5 0 0 0 50 1 7 96 52 2 70 92 100 100 100 100 100 100 98 100 100 100 100 71 100 97 70 45 100 100 100 91
99 7 99 96 88 100 100 55 5 5 5 18 5 5 0 0 1 0 4 12 100 60 90 100 100 100 100 100 100 100 100 100 99 98 100 100 100 100 100 100 98 100 100 98 99
31 100 85 82 73 100 100 99 23 78 5 38 5 5 0 0 0 0 0 29 80 60 100 100 100 100 100 100 98 100 100 100 80 97 100 100 100 100 100 100 100 100 100 100 100
100 100 100 100 100 97 100 99 51 79 28 86 10 0 0 0 0 2 0 39 71 100 100 100 100 100 100 100 100 100 100 100 94 97 100 100 100 100 100 100 100 100 100 100 98
100 100 94 100 100 100 100 100 10 86 20 56 5 0 0 0 0 0 0 11 100 100 57 91 100 88 100 100 100 100 100 100 100 100 100 100 100 100 100 92 98 99 100 100 100
100 100 100 100 100 99 91 81 7 69 53 65 5 0 0 0 0 0 5 17 99 100 88 100 83 100 100 100 100 100 100 98 100 100 100 100 100 100 100 100 100 100 100 100 100
100 100 100 100 100 24 100 26 28 69 28 5 5 0 0 0 4 0 0 3 8 100 75 74 100 97 100 100 90 100 96 100 100 100 100 100 100 100 100 80 44 92 61 78 97
100 100 100 100 99 17 98 98 26 55 95 13 6 0 1 0 2 5 0 0 5 90 91 88 91 100 100 89 89 100 99 100 100 100 100 100 100 100 100 100 100 99 100 100 97
100 100 100 100 97 81 93 59 8 99 100 39 54 0 0 4 0 0 0 0 6 79 76 99 100 97 55 97 100 100 100 100 100 100 100 100 100 100 100 100 100 34 35 24 66
100 100 100 100 100 70 91 32 11 100 95 85 100 5 5 5 4 5 4 42 84 100 98 99 82 96 100 100 100 100 100 100 100 100 100 100 100 17 94 81 81 78 31 7 2
100 100 100 100 100 94 59 44 100 100 100 100 83 3 61 5 70 5 5 74 100 100 100 100 100 100 99 100 100 100 95 98 73 32 72 56 66 47 23 13 5 5 1 0 12
100 100 100 100 99 48 100 57 100 100 100 100 84 2 69 6 21 5 5 38 55 86 100 100 100 100 99 62 58 64 84 45 90 64 76 52 29 76 78 2 0 0 0 0 0
100 100 100 100 100 74 90 100 100 100 100 100 50 5 5 68 13 11 5 72 59 100 84 100 100 100 8 6 5 5 5 3 1 32 86 4 96 5 0 0 0 0 0 0 0
100 100 100 100 100 100 100 100 100 100 100 100 98 7 21 100 44 5 5 9 40 19 61 8 10 4 2 4 0 0 31 30 7 0 3 0 0 2 0 0 0 0 0 0 0
100 100 100 100 100 94 100 100 100 100 100 100 100 35 5 68 94 5 48 93 100 100 19 8 5 3 3 49 5 5 5 2 1 47 0 17 0 0 0 0 0 0 0 1 3
100 100 100 94 76 67 98 100 100 100 100 100 99 36 5 20 90 100 53 100 100 85 44 86 5 53 50 10 75 90 6 1 5 2 0 0 0 0 0 0 0 0 0 1 5
100 100 100 100 92 99 100 100 100 100 100 100 100 97 4 4 24 100 100 100 99 5 5 5 31 23 27 6 81 2 62 79 5 5 3 0 0 0 4 5 0 0 0 0 5
100 100 100 100 100 100 100 100 100 100 100 100 61 68 5 5 3 84 94 100 98 5 5 16 54 5 5 5 4 5 1 0 0 0 3 0 0 0 1 0 4 4 5 15 6
100 100 100 100 100 100 100 100 100 100 100 100 53 86 4 35 92 83 100 100 99 6 65 80 16 30 11 5 5 5 0 0 0 0 0 0 2 0 0 5 0 5 5 29 5

GFSSW_prec_cloud_057.txt.gz
Cloud_Cover
100 100 100 100 100 79 5 5 0 0 0 1 6 5 4 0 3 0 0 0 0 0 87 46 0 3 2 4 8 5 11 93 97 19 88 98 93 100 100 100 100 100 100 100 100
100 100 100 100 100 100 23 4 0 0 0 0 4 5 0 0 31 0 0 0 0 0 2 76 1 4 5 55 78 5 66 6 3 4 23 27 8 67 100 100 100 100 100 100 92
100 100 100 100 100 84 5 5 0 0 0 0 8 5 0 6 1 0 0 0 0 0 0 0 91 8 3 61 100 48 15 58 4 5 2 4 16 100 100 100 100 100 100 100 100
100 100 100 100 100 86 12 0 0 0 1 0 6 5 5 6 0 0 0 0 0 0 0 0 62 100 12 99 100 87 5 98 64 89 5 97 16 100 98 60 99 100 100 100 100
100 100 100 100 68 65 5 0 0 0 3 6 98 5 5 2 0 0 0 0 0 0 0 0 1 100 96 100 78 16 33 74 100 63 13 100 68 100 82 100 74 83 100 100 100
100 100 100 100 5 14 3 5 2 0 2 59 94 6 24 4 0 0 0 0 0 0 0 0 4 22 18 59 39 58 92 100 100 22 68 68 100 100 45 100 100 100 100 100 100
100 100 100 100 5 5 3 5 4 5 14 5 38 89 30 2 0 0 0 0 0 0 0 0 0 0 5 61 27 100 100 97 93 100 100 100 100 99 47 100 100 100 100 100 100
100 100 100 79 5 5 5 8 5 5 54 6 88 100 24 3 0 0 0 0 0 3 1 0 0 9 23 39 100 95 100 100 87 100 85 79 100 100 100 13 100 100 99 79 40
100 100 99 59 5 5 28 17 5 5 7 32 100 100 20 0 0 0 0 0 5 39 3 4 7 38 97 100 100 100 100 100 100 100 100 27 89 100 100 88 24 97 100 100 100
100 100 86 53 5 5 82 10 21 53 10 84 100 51 5 0 0 0 0 3 10 52 90 100 100 100 100 100 100 100 100 98 98 100 100 42 91 78 49 73 100 100 100 100 100
100 100 54 5 5 51 72 39 42 42 65 22 82 5 2 0 0 0 0 2 17 100 100 100 100 100 100 100 100 100 94 100 100 100 97 100 100 100 96 100 100 100 99 100 100
100 100 32 9 94 100 85 36 36 62 94 54 37 5 2 0 0 0 0 0 8 100 100 100 56 100 100 75 100 97 100 59 100 94 100 100 100 100 100 100 100 100 100 100 100
100 100 67 72 100 88 100 9 28 49 72 40 17 5 3 0 0 0 0 0 25 97 86 97 79 100 100 100 66 70 100 100 100 100 100 100 100 88 100 100 100 100 100 100 100
100 100 100 100 100 97 19 100 12 45 41 60 5 65 0 0 0 0 0 0 1 58 100 100 99 100 89 93 74 70 98 100 100 100 100 100 100 100 100 100 100 100 100 98 97
100 100 100 100 100 100 100 60 15 100 9 19 8 6 5 0 0 0 0 0 2 14 18 100 7 49 11 20 100 100 98 100 100 100 86 92 100 100 100 100 100 100 100 100 100
100 100 100 100 100 74 83 99 88 49 95 5 13 51 5 0 1 0 5 0 0 29 98 5 100 100 97 100 100 100 100 100 100 100 100 98 94 100 45 97 100 47 92 48 69
100 100 100 100 100 100 100 100 38 67 41 5 39 11 5 2 0 0 7 0 5 64 76 7 100 98 100 100 82 98 78 76 100 94 94 71 100 100 77 92 97 100 28 8 9
100 100 100 100 100 100 100 68 94 100 84 5 11 24 17 5 0 0 36 0 5 36 98 5 33 96 98 48 100 100 55 100 100 100 94 100 78 96 99 34 100 88 9 4 5
100 100 100 100 100 100 54 56 100 100 81 92 11 5 41 5 5 15 5 0 20 8 100 100 100 100 88 88 100 68 92 55 94 100 100 94 59 9 61 10 69 26 60 8 5
100 100 100 100 100 100 96 5 57 100 100 78 50 5 89 5 5 24 18 0 5 19 36 100 100 100 100 99 100 100 88 90 100 100 100 58 5 47 5 18 6 7 10 5 0
100 100 100 100 96 83 64 100 100 100 69 91 80 49 100 9 5 15 26 0 3 94 94 99 100 100 81 100 100 27 51 65 11 40 46 5 26 17 6 78 32 0 0 0 0
100 100 100 100 35 88 100 100 100 100 100 14 92 100 100 6 10 11 28 4 22 100 89 18 80 62 100 81 27 5 3 67 5 3 5 5 2 44 5 9 0 0 0 0 0
100 100 100 100 72 22 100 100 100 100 100 100 79 100 60 100 55 1 93 12 4 89 6 41 100 100 80 87 4 6 2 0 5 7 5 5 0 5 1 0 0 0 0 0 0
100 100 100 100 61 51 100 100 100 100 100 100 100 100 100 100 67 16 100 10 5 5 10 53 100 100 32 10 0 89 8 5 5 5 0 3 0 0 0 1 3 0 0 0 0
100 96 96 100 96 100 100 100 100 100 100 100 100 100 100 97 53 100 100 4 44 16 5 50 100 92 5 5 6 19 37 31 36 88 48 4 0 0 0 5 8 4 0 0 0
100 89 14 100 100 100 100 100 100 100 100 100 100 100 100 100 86 11 97 4 3 46 98 100 86 5 55 5 41 37 5 0 5 5 5 0 2 3 1 5 5 5 0 2 5
100 82 93 100 100 100 100 100 100 100 100 100 100 100 100 98 97 5 5 3 0 14 100 100 99 5 47 5 5 21 0 5 5 5 1 0 0 0 0 0 0 0 4 5 5

GFSSW_prec_cloud_060.txt.gz
Cloud_Cover
100 100 100 100 100 100 100 96 100 51 5 5 4 20 23 10 0 0 0 3 0 0 0 0 0 5 5 4 0 5 88 99 55 5 1 5 4 5 100 100 100 100 100 84 99
100 100 100 100 100 100 100 100 100 45 6 5 4 12 0 2 33 0 0 0 0 0 0 0 0 5 2 5 5 48 6 79 32 21 4 5 2 0 100 99 100 100 100 100 100
100 100 100 100 100 100 100 100 100 59 5 5 0 2 0 18 6 1 0 0 0 0 0 0 0 3 3 74 80 98 69 4 11 4 0 0 0 0 100 60 100 100 100 100 100
100 100 100 100 100 100 100 100 100 59 58 5 6 0 0 31 6 0 0 0 0 0 0 0 0 1 70 100 62 4 2 0 0 4 0 0 1 0 100 100 100 100 93 100 100
100 100 100 100 100 100 100 100 100 100 91 5 7 2 6 9 23 0 0 0 0 0 0 4 3 4 65 42 18 5 5 5 1 3 54 2 47 100 100 96 95 100 100 100 100
100 100 100 100 100 100 100 100 100 100 25 5 0 4 5 59 0 0 0 0 0 0 0 5 3 3 100 90 17 93 96 80 100 98 93 4 91 100 100 87 100 100 100 100 100
100 100 100 100 100 100 100 100 100 74 5 0 5 5 15 30 0 0 0 0 0 0 0 1 1 3 20 100 100 100 100 100 100 100 100 85 31 100 78 73 100 100 100 100 100
100 100 100 100 100 100 100 100 99 5 5 3 5 6 56 5 0 0 0 0 33 3 0 0 5 0 14 67 12 60 90 100 100 100 100 100 100 100 83 64 100 100 100 100 100
100 100 100 100 100 100 100 100 96 5 5 4 5 9 77 4 0 0 0 0 0 10 1 4 4 2 13 91 100 56 94 100 100 100 92 91 100 100 100 90 100 100 100 100 100
100 100 100 100 100 100 100 100 57 73 5 5 59 53 53 4 0 0 0 0 0 0 1 4 23 97 100 100 99 98 66 84 84 50 100 97 99 100 100 100 100 100 100 100 100
100 100 100 100 100 100 100 79 80 82 6 5 21 30 100 3 0 0 2 0 2 77 80 100 97 51 47 100 99 99 42 8 16 41 77 98 96 100 100 100 100 100 100 100 100
100 100 100 100 100 100 100 24 88 91 19 7 86 52 53 5 0 1 3 0 5 3 53 100 100 48 90 50 71 7 77 38 45 12 96 52 100 100 100 100 100 100 100 100 100
100 100 100 100 100 100 100 36 67 81 54 24 98 22 61 3 0 0 0 0 0 5 4 71 69 25 99 92 88 59 69 95 87 79 91 100 100 100 100 100 100 100 100 69 46
100 100 100 100 100 100 98 99 58 83 75 93 100 87 9 2 0 0 0 0 0 0 21 85 91 90 96 35 97 98 92 100 98 100 100 100 100 100 100 100 100 100 91 62 46
100 100 100 100 100 100 83 53 34 100 12 95 100 67 24 5 0 0 0 0 0 0 0 10 73 63 96 88 54 56 96 100 100 100 100 28 54 100 100 100 100 100 100 77 98
100 100 100 100 100 100 100 100 100 93 92 71 100 100 38 5 0 0 0 0 0 0 2 5 5 27 90 84 10 34 93 94 87 71 91 63 40 96 95 78 100 100 100 100 100
100 100 100 100 100 96 100 100 77 100 61 6 100 91 100 28 0 0 4 4 0 0 4 5 7 100 100 76 97 81 5 30 56 33 90 8 51 84 56 68 100 100 100 99 100
100 98 100 100 97 85 100 36 96 100 99 78 96 14 100 74 4 0 0 0 0 1 32 5 5 84 100 96 92 5 24 5 7 5 5 76 52 98 100 94 70 47 87 100 100
100 100 100 100 94 100 100 98 100 100 100 5 8 100 100 100 4 0 0 0 0 5 1 32 70 8 68 92 41 40 16 24 37 16 6 85 6 93 64 76 100 8 4 31 5
100 100 100 100 100 96 80 45 94 100 69 8 71 100 69 98 5 0 1 0 0 3 0 7 67 6 81 95 81 90 83 25 26 57 12 75 22 89 28 5 6 5 4 5 4
99 100 100 100 100 77 99 80 100 100 54 17 5 21 95 96 48 5 4 0 3 5 14 4 27 77 96 100 100 100 97 99 81 87 21 5 66 5 1 5 42 82 5 5 5
100 99 84 100 100 10 98 100 100 100 31 26 7 36 66 68 64 9 5 5 0 5 4 100 98 5 28 95 38 87 30 5 5 100 96 0 0 0 0 1 5 5 5 2 0
100 100 62 100 100 29 4 100 100 100 71 41 12 78 100 48 78 98 5 2 0 5 1 22 78 86 91 71 90 21 4 89 91 6 5 2 0 2 27 0 1 0 0 0 0
100 100 100 94 19 60 5 48 100 100 100 93 100 100 45 90 100 96 23 5 4 0 5 33 86 49 100 100 6 17 7 14 80 5 5 2 4 2 4 0 0 0 0 0 0
100 100 7 100 97 95 86 58 100 100 5 72 82 100 100 100 100 74 6 10 5 2 4 62 18 88 100 76 90 97 5 5 4 5 5 1 0 0 0 0 3 2 2 0 0
100 100 94 9 83 18 60 5 96 100 91 100 100 100 100 100 100 18 5 92 5 5 5 3 2 5 82 100 78 82 91 2 0 5 5 6 4 0 0 0 0 0 0 0 0
100 98 97 5 53 91 16 66 97 100 100 100 100 100 100 100 100 100 100 38 8 13 3 3 2 4 54 100 29 98 1 5 0 0 1 5 22 5 4 0 0 1 0 0 1

GFSSW_prec_cloud_063.txt.gz
Cloud_Cover
100 100 100 100 100 100 100 100 100 100 91 91 100 48 26 5 16 0 0 0 0 0 0 0 0 0 1 1 5 5 40 59 100 86 16 5 4 5 71 100 100 100 100 99 100
100 100 100 100 100 100 100 100 100 100 100 100 100 72 7 10 31 0 0 0 0 0 0 0 0 0 5 4 5 5 9 49 78 100 79 5 0 0 66 100 100 100 100 100 100
100 100 100 100 100 100 100 100 100 100 100 100 100 34 57 25 4 0 0 0 0 0 0 0 0 0 9 10 28 9 4 5 89 100 97 78 4 0 0 92 100 100 100 100 100
100 100 100 100 73 99 100 100 100 100 100 100 100 12 28 5 2 0 0 0 0 0 0 0 0 3 1 6 5 49 6 25 99 40 80 79 5 1 1 76 100 100 100 100 100
100 100 100 100 100 100 100 100 100 100 100 100 98 18 6 5 0 0 0 0 0 0 0 0 0 0 0 84 45 71 61 5 73 73 70 10 0 0 13 100 100 100 100 100 100
100 100 100 100 100 100 85 78 75 100 100 100 100 60 5 5 0 0 0 0 0 0 0 0 0 5 3 30 36 6 47 83 21 8 34 33 4 1 98 100 100 100 100 100 100
100 100 100 100 100 100 100 50 34 100 100 100 100 31 5 5 0 0 0 0 0 0 0 0 0 0 3 69 22 80 100 100 100 100 99 6 98 92 98 100 100 100 100 100 100
100 100 100 100 100 100 98 100 55 99 100 100 98 27 5 5 4 0 0 0 0 0 0 0 0 0 0 92 4 64 58 92 29 76 100 100 79 100 100 100 100 100 100 100 100
100 100 100 100 100 100 91 100 100 100 100 100 62 5 5 2 4 0 0 0 0 0 0 0 0 0 0 4 61 94 94 60 100 95 99 97 94 100 100 100 100 100 100 100 100
100 100 100 100 100 100 86 100 100 100 100 100 44 21 5 5 5 0 0 0 0 0 0 0 0 1 5 78 94 96 100 98 100 87 96 55 41 100 100 100 100 100 100 100 100
100 100 100 100 100 100 62 93 100 100 100 97 73 5 5 5 5 1 0 0 0 0 24 22 4 5 81 18 88 100 65 100 100 81 97 56 35 95 100 100 100 100 100 100 100
100 100 100 100 100 100 100 89 100 100 100 86 93 18 6 10 5 0 0 0 0 0 2 2 5 99 29 90 86 97 49 100 100 60 65 100 100 100 100 100 100 100 100 100 100
100 100 100 100 100 100 100 100 100 100 100 47 100 8 68 20 1 0 0 0 0 0 0 1 5 5 83 5 36 70 59 92 81 100 100 100 43 100 100 100 100 100 100 100 100
100 100 100 100 100 100 100 100 100 100 100 98 80 54 18 20 4 0 0 2 0 0 0 4 5 17 13 44 68 71 96 93 100 100 100 100 100 100 100 100 100 94 100 100 100
100 100 100 100 100 100 100 100 100 100 82 94 100 99 15 23 1 5 0 0 1 0 0 4 4 5 91 19 81 77 65 65 100 100 98 100 100 100 100 100 100 100 100 100 100
100 100 100 100 100 100 100 100 100 100 94 100 100 100 10 5 5 5 4 5 0 0 0 5 5 5 5 29 66 59 40 47 80 91 51 82 100 100 86 100 100 99 94 97 100
100 100 100 100 100 100 100 100 100 100 100 100 100 99 95 5 5 5 5 5 5 1 0 3 4 5 31 92 45 81 99 75 90 52 50 82 91 100 72 95 37 62 8 59 77
100 100 100 100 100 100 100 100 100 100 100 100 100 100 6 5 5 5 5 3 5 5 2 0 0 21 5 55 8 5 5 32 44 86 49 81 11 99 100 96 73 7 5 5 3
100 100 100 100 100 100 80 100 100 100 100 100 74 6 13 5 5 5 5 5 5 5 5 0 0 0 31 43 32 23 10 66 83 99 62 91 95 100 12 79 100 99 10 9 6
100 100 100 100 100 100 81 82 100 100 100 40 13 92 57 5 14 5 5 5 0 5 5 3 1 0 0 58 100 83 66 50 26 16 25 77 78 64 19 6 48 28 30 74 60
100 100 100 100 99 100 52 100 100 100 100 92 8 14 100 5 14 5 5 7 2 5 5 3 0 0 0 21 99 79 20 5 17 10 5 8 42 5 5 42 69 82 98 75 86
100 92 100 100 100 100 98 100 100 100 99 94 78 21 100 64 5 5 100 5 5 5 5 5 3 0 0 4 35 53 67 66 24 9 15 5 70 6 74 35 5 5 24 36 5
100 95 95 91 89 100 98 100 100 100 76 17 24 5 5 72 6 100 100 5 66 5 5 5 4 0 0 1 11 100 30 86 10 0 1 4 0 5 5 5 5 5 31 4 3
100 96 100 100 34 34 100 100 100 100 100 22 77 90 64 100 78 70 100 62 100 7 5 5 4 4 0 2 87 42 99 17 6 5 5 0 0 0 6 82 3 0 0 0 0
100 92 69 100 95 90 89 95 100 100 28 41 5 42 100 92 98 100 100 100 93 5 5 5 5 5 5 8 22 5 5 14 5 5 2 0 2 2 5 5 5 3 4 2 0
100 98 92 5 65 97 100 85 100 100 100 6 100 100 100 100 100 100 100 100 48 13 5 19 5 5 5 2 5 5 20 20 5 5 0 4 2 0 4 5 2 0 0 2 2
100 55 46 70 89 77 52 29 74 100 43 95 100 100 100 100 100 100 91 87 41 100 100 100 54 5 5 0 54 37 100 4 0 0 0 4 0 0 5 5 5 5 4 0 0

GFSSW_prec_cloud_066.txt.gz
Cloud_Cover
100 100 100 100 100 100 97 100 94 100 100 99 100 100 100 100 94 5 1 0 0 0 0 0 0 0 0 4 8 14 95 5 30 100 97 100 100 100 92 68 34 28 100 100 100
100 100 100 100 100 100 100 100 100 100 88 100 100 100 100 100 58 5 2 0 0 0 0 0 0 0 0 5 56 6 8 38 56 96 99 99 100 78 9 8 50 100 100 100 100
100 100 100 100 100 100 100 100 86 100 100 100 100 62 100 95 21 5 0 0 0 0 0 0 0 0 0 5 5 57 6 12 6 63 100 100 48 6 4 3 94 100 100 100 100
100 100 100 100 100 100 100 98 100 100 100 100 100 81 100 68 23 5 2 2 0 0 0 0 0 0 1 1 14 84 46 87 54 88 100 100 100 99 21 9 100 100 99 100 100
100 100 100 100 100 100 100 100 98 100 96 66 56 30 100 90 8 5 5 2 0 0 0 0 0 0 1 0 5 7 42 67 89 100 100 87 50 5 7 13 76 100 100 100 99
100 100 100 100 97 100 100 100 100 100 28 30 17 15 100 100 5 5 5 0 0 0 0 0 0 0 1 0 2 26 9 15 40 93 100 95 11 5 97 96 100 100 84 94 91
100 100 100 100 100 100 91 100 92 94 40 10 13 76 100 93 10 5 5 2 0 0 0 0 0 0 0 0 74 96 2 5 5 2 6 6 33 6 98 7 96 100 100 100 100
100 100 100 100 100 100 100 100 100 55 73 18 26 100 100 10 6 5 5 0 0 0 0 0 0 0 0 1 5 5 11 32 14 34 99 60 83 100 93 100 100 100 100 100 100
100 100 100 100 100 100 100 100 92 22 74 29 94 100 100 36 5 43 2 4 0 0 0 0 0 0 0 4 100 89 97 91 36 83 87 79 89 99 77 99 100 100 100 100 100
100 100 100 100 100 100 100 95 100 100 77 100 25 84 100 28 10 24 0 5 0 0 0 0 0 0 2 4 35 91 77 46 99 95 100 100 100 100 100 100 100 100 100 100 100
100 100 100 100 100 100 100 100 100 100 100 64 92 100 100 5 15 5 4 0 0 0 0 0 0 0 13 3 21 30 93 96 42 88 93 100 100 100 100 100 100 100 100 100 100
100 100 100 100 100 100 97 46 100 100 100 47 100 77 8 5 8 5 5 1 0 0 0 0 0 1 10 5 16 66 97 100 90 100 100 100 100 100 100 100 100 100 100 100 100
100 100 100 100 100 100 100 9 100 100 100 100 97 24 29 10 5 5 5 2 0 0 0 0 2 4 2 10 5 5 64 94 38 96 87 100 100 100 100 100 100 100 100 100 100
100 100 100 100 100 100 100 100 100 100 100 100 100 92 96 59 5 5 5 2 0 0 0 0 0 0 0 5 5 11 81 98 7 5 34 58 100 100 100 100 98 100 100 100 100
100 100 100 100 100 100 100 100 100 100 78 100 100 100 100 24 5 5 5 0 0 0 0 0 0 0 4 5 5 54 46 58 89 98 50 92 97 100 100 100 100 100 100 98 100
100 100 100 100 100 100 100 100 100 100 74 100 100 100 100 86 20 5 5 5 2 0 0 0 0 5 1 5 5 23 29 94 85 100 100 78 80 100 97 100 100 100 99 94 31
100 100 100 100 100 98 100 100 100 100 100 100 100 100 100 90 24 5 5 5 5 0 1 0 0 5 4 0 12 16 53 69 70 52 98 70 47 84 100 100 100 100 90 68 91
100 100 38 100 100 99 100 100 100 100 100 100 100 99 100 44 20 5 4 5 5 5 0 0 0 0 0 0 3 5 47 71 79 94 83 100 72 94 97 64 98 100 100 100 100
100 100 100 99 100 100 100 100 100 100 100 100 100 100 90 96 62 6 5 5 5 5 1 5 4 0 0 0 0 5 5 66 100 88 80 97 84 23 100 98 99 96 100 100 100
100 100 100 100 100 100 100 97 100 100 100 100 100 100 94 20 88 29 5 2 5 5 1 0 2 4 0 2 2 5 5 5 41 93 85 43 52 64 50 72 49 91 88 91 100
100 100 61 100 100 100 100 93 100 100 100 100 100 100 90 10 47 33 5 3 5 5 5 0 2 5 5 0 2 35 6 5 5 27 80 55 33 16 5 5 14 14 19 20 37
100 100 8 95 100 100 100 99 100 100 100 100 100 100 100 54 11 6 43 5 4 5 5 3 5 0 5 5 0 0 0 5 5 5 100 60 74 19 82 75 68 60 42 7 11
100 100 64 5 99 100 100 100 100 100 40 97 100 100 100 51 6 6 32 21 5 5 5 5 5 4 5 5 4 0 0 3 5 5 32 100 15 80 5 4 1 2 5 59 5
100 100 89 90 0 74 100 100 100 100 100 100 69 100 100 100 100 100 79 63 18 13 31 5 5 3 3 2 5 1 0 5 16 66 44 18 5 0 1 0 3 5 2 0 0
100 100 92 100 87 5 100 100 100 100 100 100 99 89 100 100 100 100 100 98 91 27 28 4 6 7 0 0 4 4 2 5 5 92 80 66 27 5 0 0 0 4 3 0 0
100 99 97 32 96 55 100 100 100 100 100 99 90 100 100 100 100 100 100 100 100 64 68 5 22 5 5 4 1 5 0 3 61 100 100 52 100 0 0 0 0 0 5 0 0
100 64 93 52 94 90 24 100 100 100 100 100 100 100 100 100 100 100 100 100 88 33 89 9 16 99 7 5 4 5 0 6 85 25 52 72 46 5 0 0 1 2 5 4 5

GFSSW_prec_cloud_069.txt.gz
Cloud_Cover
100 66 94 100 100 100 100 100 39 93 91 100 100 100 16 15 27 53 42 5 5 2 0 0 0 0 0 0 2 60 69 98 94 84 100 100 99 100 99 44 94 100 100 69 100
100 100 99 86 100 87 100 100 100 100 100 100 100 100 82 12 14 86 78 5 5 4 4 0 0 0 0 0 5 88 10 100 62 6 100 84 100 100 98 84 94 84 45 100 100
100 100 100 65 71 100 100 100 100 100 100 100 100 97 5 5 30 98 100 5 5 5 5 0 0 0 0 0 0 97 66 99 94 20 83 100 71 60 23 16 4 5 65 100 100
100 100 100 96 89 95 100 100 100 100 100 18 100 72 6 5 16 70 53 6 5 5 4 0 0 0 0 0 0 69 97 84 100 32 78 8 58 58 5 5 0 2 67 100 100
100 100 100 100 83 99 100 100 100 100 100 98 50 84 5 5 3 12 78 31 22 17 0 0 0 0 0 0 0 0 50 57 20 100 99 36 57 14 7 37 5 66 100 100 100
100 26 84 100 100 100 98 91 100 97 100 31 99 13 5 5 5 5 85 6 88 5 0 0 0 0 0 0 0 6 9 18 5 5 39 81 36 61 23 100 100 100 99 100 100
60 24 88 64 100 100 100 100 100 100 100 89 13 35 5 5 28 38 6 5 21 2 0 0 0 0 0 0 2 33 8 5 5 5 7 5 40 5 5 99 13 60 98 100 100
100 27 83 100 95 100 100 100 100 100 100 70 22 19 5 6 94 48 5 5 2 0 0 0 0 0 0 0 0 5 16 79 6 5 35 18 4 5 5 23 0 83 100 100 100
42 86 67 16 61 99 100 100 100 100 100 67 60 62 5 10 100 100 5 5 4 5 0 0 0 0 0 0 4 5 100 98 73 14 41 42 60 61 91 4 61 100 100 89 100
98 24 94 44 70 100 100 100 100 100 100 97 46 6 12 51 94 89 5 5 5 5 2 0 0 0 0 0 0 3 86 100 85 97 70 87 100 100 100 29 100 100 100 98 97
100 99 14 26 5 82 100 100 100 100 100 100 26 22 8 14 100 100 5 5 3 5 3 0 0 0 0 0 4 5 6 100 60 35 89 98 98 100 100 100 100 100 100 100 100
100 100 97 5 5 86 100 100 100 100 100 100 98 62 58 46 21 15 5 5 5 5 5 0 0 0 0 5 5 5 11 100 98 55 87 54 100 92 100 100 100 100 100 100 39
100 100 96 49 16 100 100 100 100 100 100 75 60 57 69 100 24 45 49 5 6 5 5 0 0 0 5 5 5 5 5 54 59 99 100 76 99 100 100 100 100 100 97 100 100
100 100 93 5 86 100 100 100 100 100 100 100 39 66 58 100 100 100 100 8 86 4 5 0 0 0 0 2 5 5 5 5 32 64 26 100 100 100 98 100 100 100 100 100 100
100 100 88 68 100 100 100 100 100 100 100 100 45 67 63 100 100 100 100 69 54 5 5 3 0 0 0 3 5 5 5 71 62 82 87 57 93 76 100 100 100 99 100 98 98
100 100 100 48 100 100 100 100 100 100 100 100 100 100 100 100 100 100 100 24 48 5 2 5 1 2 0 0 0 5 5 5 5 55 100 69 51 98 100 100 100 98 95 73 100
100 100 100 62 89 100 100 100 100 100 100 100 100 100 100 100 100 100 41 100 48 5 5 5 0 0 0 0 0 0 5 5 5 100 88 98 75 61 77 100 100 98 96 72 93
100 100 100 95 86 52 100 100 100 100 100 100 100 100 100 100 100 100 100 78 5 5 5 5 0 0 0 0 0 1 3 5 5 30 56 100 100 79 100 100 99 78 95 100 100
100 100 100 100 78 87 100 100 100 100 100 100 100 100 100 100 100 100 100 6 40 24 5 0 0 5 5 4 3 2 1 1 5 31 38 81 100 100 99 44 39 27 8 31 10
100 100 100 100 100 100 100 100 100 100 100 100 100 100 100 100 100 99 65 72 99 8 5 4 0 0 3 5 1 0 4 5 5 71 93 77 99 92 46 98 14 6 52 97 71
100 100 85 100 100 100 98 83 100 100 100 100 100 100 100 100 100 100 100 100 67 28 22 5 5 5 0 1 0 4 0 0 0 8 98 66 96 47 13 26 96 72 92 68 69
100 100 98 100 100 100 100 80 100 100 100 100 100 100 100 100 100 100 100 95 5 98 100 5 5 5 0 2 2 1 4 1 0 3 70 99 100 42 12 71 74 76 55 28 20
100 100 82 56 100 100 13 19 100 100 100 100 100 100 100 100 100 100 100 99 66 99 91 5 8 5 4 0 12 7 5 5 0 0 4 54 100 6 5 19 5 10 5 4 0
100 100 100 100 9 8 63 10 70 100 100 100 98 100 100 100 100 100 100 100 100 100 54 5 32 62 5 4 6 42 2 4 5 0 0 8 95 59 44 14 6 26 5 2 0
100 100 32 100 100 5 5 5 19 100 100 100 100 100 100 100 100 100 100 100 100 100 30 5 72 6 5 1 0 28 7 5 5 1 0 5 56 40 12 5 5 5 7 10 7
100 100 5 98 90 100 95 53 15 79 100 100 100 100 100 100 100 100 100 100 100 14 5 13 27 6 5 3 2 21 6 5 5 5 0 2 92 15 9 97 50 0 3 5 5
74 25 34 7 99 100 52 11 100 77 100 100 100 100 100 100 100 100 100 100 99 44 14 99 84 5 34 5 3 98 5 5 5 5 5 0 51 100 100 73 6 5 5 0 0

GFSSW_prec_cloud_072.txt.gz
Cloud_Cover
100 100 100 49 66 76 90 100 100 100 50 55 75 23 16 6 53 12 5 5 5 5 5 5 2 0 0 0 0 0 3 87 99 100 100 100 100 100 95 98 51 100 100 100 100
98 73 100 100 96 15 7 64 100 100 92 85 100 91 100 19 5 5 25 5 5 5 10 14 5 0 0 0 0 5 5 58 75 100 90 98 84 94 100 43 67 61 98 73 100
100 100 97 8 71 100 32 21 5 7 84 32 71 92 94 68 39 40 5 5 5 5 63 5 0 0 0 0 0 5 6 3 16 21 82 24 100 100 57 78 96 97 100 73 99
78 100 100 100 100 100 100 51 5 9 89 100 79 58 36 5 52 25 5 5 5 5 10 5 0 0 0 0 0 3 4 5 5 5 5 83 80 13 27 3 31 3 95 100 98
5 38 77 100 99 100 100 100 99 7 15 100 85 100 62 5 12 5 0 5 5 5 7 1 0 0 0 0 0 0 4 5 5 5 18 5 0 0 0 0 4 17 80 100 100
62 35 87 33 48 76 100 95 96 20 40 5 79 100 15 7 5 0 5 5 5 53 6 0 0 0 0 0 0 0 5 5 5 66 13 13 82 16 35 14 34 100 84 100 100
100 36 83 31 98 79 91 100 31 73 100 32 60 82 60 11 5 5 5 5 7 92 26 1 0 0 0 0 0 0 5 2 1 5 5 5 18 96 99 12 8 84 100 100 100
100 100 5 5 39 99 61 8 85 100 96 94 53 90 99 5 5 5 5 5 96 97 4 0 0 0 0 0 0 0 18 100 6 59 27 5 98 37 92 5 1 6 100 100 100
100 100 99 3 24 69 77 83 5 36 100 100 99 14 24 35 5 5 5 9 66 90 4 0 0 0 0 0 27 11 100 58 100 42 100 100 46 53 34 6 6 18 100 100 100
100 100 100 97 5 5 7 6 44 5 99 100 100 95 29 77 5 3 5 64 38 39 5 0 0 0 0 0 99 100 69 12 27 42 5 44 100 100 100 50 24 89 100 100 100
100 100 100 100 4 11 9 5 5 5 56 100 100 100 89 40 12 5 5 99 5 6 5 2 0 3 4 0 5 1 22 44 96 15 9 57 99 87 100 98 100 100 100 100 87
100 100 100 100 2 11 90 5 5 3 5 68 100 100 100 88 49 5 5 5 5 50 69 5 0 3 0 0 3 22 99 89 63 48 92 98 78 64 30 52 100 100 100 100 100
100 100 100 100 5 5 6 5 5 5 0 53 100 100 100 63 18 25 5 5 68 100 33 5 4 0 0 3 4 20 42 13 38 50 100 71 8 45 22 5 98 100 100 100 64
100 100 100 100 0 2 26 5 5 5 1 59 100 100 100 52 35 5 6 73 100 94 32 5 5 0 5 5 3 97 12 2 26 100 99 19 100 6 5 5 61 99 53 100 78
96 100 100 100 97 60 26 20 5 18 3 56 100 100 100 86 100 24 5 79 100 98 42 5 5 3 0 0 1 65 5 5 5 38 68 7 76 100 5 56 47 99 100 65 96
0 95 100 88 75 96 29 22 4 18 1 5 100 100 100 100 94 36 44 100 100 99 8 42 5 5 0 0 4 5 5 5 5 5 100 94 6 100 100 86 72 63 90 85 100
0 10 100 98 40 18 64 63 4 1 0 31 100 100 100 100 78 42 98 100 100 52 45 57 5 5 5 0 0 5 8 88 78 67 79 77 10 93 38 78 98 97 90 90 91
3 6 100 100 87 100 100 89 30 0 20 59 100 100 100 100 100 100 100 100 100 99 95 73 5 5 5 5 4 0 24 100 97 71 95 27 11 14 20 100 100 68 83 73 58
5 7 87 100 56 100 100 99 0 0 96 100 100 100 100 100 100 100 100 100 100 91 92 16 43 43 5 5 1 3 1 3 2 3 70 19 5 5 10 5 6 5 5 34 54
58 52 54 98 97 100 100 3 0 2 100 100 100 100 100 100 100 100 100 100 100 100 73 94 9 19 5 5 5 5 17 6 3 20 15 42 73 19 5 5 5 25 71 14 53
100 100 64 58 100 100 100 3 0 2 100 100 100 100 100 100 100 100 100 100 100 79 94 100 26 46 5 5 5 5 5 4 24 18 5 12 67 100 24 65 12 10 10 12 17
100 100 33 5 92 100 100 0 2 54 100 100 100 100 100 100 100 100 100 100 100 98 100 55 44 90 5 5 56 82 93 70 33 87 1 35 100 8 27 94 28 5 7 70 100
100 100 70 9 96 100 72 11 4 51 100 100 100 100 100 100 100 100 100 100 100 100 100 99 40 10 5 5 17 93 30 5 64 6 5 1 35 12 4 74 41 59 65 4 7
100 100 96 89 6 4 89 51 28 5 62 100 100 100 100 100 100 100 100 100 100 100 100 100 100 86 22 5 5 10 20 5 29 34 16 5 2 81 5 5 8 28 34 30 5
100 77 4 97 98 42 61 58 93 61 36 100 100 100 100 100 100 100 100 100 100 100 100 100 100 100 38 5 5 83 5 5 5 33 52 5 4 11 0 4 74 12 5 6 14
80 31 78 5 17 52 97 100 64 27 100 100 100 100 100 100 100 100 100 100 100 100 100 100 100 100 100 88 5 96 25 5 5 14 45 6 5 5 0 3 5 5 6 14 87
83 10 92 8 86 100 69 14 96 96 98 100 100 100 100 100 100 100 100 100 100 100 100 100 100 100 100 91 28 100 31 11 4 5 5 9 5 5 3 4 5 80 73 96 68

GFSSW_prec_cloud_075.txt.gz
Cloud_Cover
0 2 5 97 100 89 95 40 38 72 69 100 22 52 75 42 6 6 5 4 2 0 0 0 2 3 0 0 0 0 7 100 99 100 100 95 91 74 100 75 6 100 100 100 100
48 31 12 87 8 11 59 57 5 5 20 5 8 5 5 5 4 5 4 2 5 0 0 0 4 0 0 0 0 0 78 100 49 30 38 90 65 98 95 100 100 100 100 100 100
0 6 4 9 100 100 100 90 100 96 5 9 5 5 5 6 3 5 5 48 2 2 5 0 4 0 0 0 1 57 67 98 5 3 28 92 70 100 84 100 100 100 100 100 100
54 1 0 2 63 100 100 100 100 100 100 100 44 13 12 5 4 12 2 5 5 2 0 2 5 0 0 3 8 0 68 0 5 0 1 97 10 5 85 24 80 78 88 96 97
100 33 2 0 2 85 97 100 90 95 100 75 76 55 10 5 13 5 5 4 2 0 4 5 5 0 0 5 4 5 7 17 0 5 1 0 70 60 97 2 4 7 18 65 66
100 100 10 4 23 5 4 31 90 100 12 15 34 41 5 29 5 1 30 4 0 5 5 5 3 0 0 0 2 41 0 61 0 34 3 24 88 1 32 1 0 2 47 86 100
100 100 100 5 5 20 5 16 84 82 63 24 6 43 5 43 5 100 100 5 0 5 56 52 5 0 4 1 4 4 2 100 3 49 68 27 100 100 22 5 6 31 12 91 100
100 100 100 72 54 53 4 8 55 40 59 26 5 5 5 5 18 7 5 5 1 5 39 3 5 2 0 1 0 5 55 98 100 94 37 70 100 100 30 100 98 20 7 90 100
100 100 100 100 100 9 49 81 43 6 85 64 6 5 5 100 100 100 6 5 5 5 99 5 5 0 4 0 64 100 95 99 94 50 35 44 96 100 5 18 2 42 23 35 99
100 100 100 100 100 100 100 5 5 33 17 7 5 5 4 76 100 24 5 5 5 36 100 5 5 2 4 26 96 99 89 97 18 74 82 51 71 100 16 6 5 5 94 99 74
100 100 100 100 100 100 100 51 4 5 5 5 5 2 3 11 100 100 63 5 6 18 87 5 73 7 94 84 21 99 59 100 89 100 5 41 99 54 95 40 66 71 100 100 100
45 100 100 100 100 100 100 25 6 12 4 1 5 0 4 5 100 100 58 50 26 5 7 60 100 10 74 12 18 9 96 99 92 70 5 26 98 100 84 19 96 100 100 100 79
21 79 100 100 98 19 25 23 6 5 5 33 5 0 5 5 78 100 57 100 33 7 25 100 100 5 2 6 10 86 100 98 83 96 59 62 56 100 85 6 88 100 99 100 98
82 22 94 100 94 93 92 55 5 9 5 17 4 0 0 5 10 100 100 100 37 13 96 100 100 10 4 5 97 100 90 6 66 22 100 83 100 100 100 11 15 99 100 100 100
23 81 81 100 66 100 100 100 100 37 15 2 0 0 0 0 17 100 100 100 62 6 86 100 100 58 4 13 69 95 21 0 36 88 99 87 11 50 74 12 68 97 100 96 100
92 90 20 100 99 100 100 100 100 100 11 0 0 0 0 1 7 100 100 100 50 68 100 100 100 15 10 5 10 45 1 2 21 76 81 98 33 100 98 98 100 99 100 78 23
5 5 0 36 100 100 100 100 100 12 13 3 0 0 0 2 61 100 100 100 89 72 100 100 100 41 50 5 4 5 44 91 100 100 55 90 17 38 98 72 82 25 50 96 100
5 5 4 5 5 100 100 100 78 5 7 1 0 2 0 5 99 100 100 100 100 90 100 100 56 59 89 5 22 14 92 96 100 99 100 92 33 50 13 5 6 5 5 5 10
9 49 57 30 1 100 100 100 0 4 71 1 3 0 4 5 100 100 100 100 100 100 100 98 68 100 52 8 11 99 90 77 99 26 1 61 84 8 92 22 14 29 5 15 19
53 68 92 91 12 99 100 95 0 0 0 0 2 2 5 85 100 100 100 100 100 100 100 100 100 100 5 31 9 70 71 88 82 94 77 96 100 100 73 4 5 49 6 5 5
100 100 88 94 71 100 100 40 3 1 0 1 5 0 5 86 100 100 100 100 100 100 100 100 100 88 14 65 5 6 18 75 100 97 93 80 97 94 64 78 52 12 5 5 5
100 100 57 39 100 100 100 4 24 1 4 5 6 77 2 94 100 100 100 100 100 100 100 100 100 41 100 93 12 95 80 83 100 100 97 70 9 100 14 16 16 63 5 5 5
100 100 93 5 93 92 2 0 72 96 4 82 89 87 81 100 100 100 100 100 100 100 98 84 50 100 100 96 25 44 11 98 100 98 79 83 10 70 35 0 0 34 91 90 63
100 100 100 92 50 5 0 5 5 3 80 96 100 100 70 100 100 100 100 100 100 100 100 98 100 100 100 100 35 100 11 8 87 98 49 11 54 75 76 95 100 98 15 44 29
100 47 35 100 95 9 74 20 5 5 5 100 100 100 71 100 100 100 100 100 100 100 100 100 93 99 100 100 100 100 75 16 77 98 88 18 37 5 100 98 15 33 70 13 5
100 57 100 98 66 65 84 84 97 5 5 8 100 100 100 100 100 100 100 100 100 100 100 100 97 100 100 100 100 100 100 81 24 47 5 5 21 97 89 7 5 4 2 3 7
100 42 100 94 100 76 36 5 11 34 23 80 100 100 100 100 100 100 100 100 100 100 100 100 100 100 100 100 100 100 100 100 42 47 5 6 13 96 95 11 5 5 0 1 5

GFSSW_prec_cloud_078.txt.gz
Cloud_Cover
0 0 0 0 0 0 86 76 84 60 76 80 69 15 23 3 3 3 5 5 1 1 2 2 0 0 0 0 0 0 0 83 100 99 3 5 5 3 100 100 100 100 100 100 100
0 0 0 0 0 0 15 100 78 55 28 7 6 42 9 5 4 5 3 2 0 5 0 0 0 0 0 3 0 0 26 71 81 56 4 0 1 5 89 100 100 100 100 100 100
0 0 0 0 0 0 0 7 100 100 100 100 83 22 74 8 7 5 0 0 5 1 0 0 0 0 0 26 36 3 4 100 61 71 1 5 4 96 56 76 100 100 100 75 94
0 15 11 5 5 5 1 0 20 99 100 100 100 100 100 100 46 5 5 1 5 0 0 0 0 0 0 21 75 84 1 14 44 5 0 1 95 91 68 54 100 100 100 100 100
19 76 97 24 51 25 30 30 4 34 85 100 100 71 36 36 29 13 2 0 54 100 90 0 0 5 5 60 88 5 16 3 37 2 0 0 0 46 8 6 89 100 100 100 98
96 100 60 6 6 18 100 100 10 9 5 5 60 87 6 12 5 4 5 1 5 22 2 0 0 13 5 1 12 11 18 7 89 52 95 36 27 95 100 100 10 12 30 100 100
100 100 100 99 1 80 100 100 100 15 15 16 3 11 62 41 5 5 5 47 93 18 5 5 0 4 16 6 26 4 0 79 60 48 100 39 100 100 100 100 46 0 25 85 99
100 100 100 99 90 5 3 100 100 100 6 66 12 5 5 2 1 5 5 67 100 94 2 5 19 100 73 4 0 0 25 86 88 67 60 100 100 100 100 100 95 7 0 55 88
100 100 100 96 79 14 40 60 97 100 100 65 9 6 10 1 0 0 5 80 72 50 2 5 43 100 66 8 3 12 63 33 70 78 2 100 88 100 100 88 43 0 0 50 100
99 94 54 98 77 100 100 100 52 60 100 100 82 49 4 5 1 0 1 44 100 100 3 5 6 74 31 92 21 98 91 99 98 82 2 6 51 72 82 14 51 58 2 9 11
100 100 99 100 90 100 100 100 100 84 99 100 100 100 100 5 21 0 0 9 100 100 37 5 5 5 100 100 44 56 76 92 100 100 46 69 18 100 80 92 23 100 33 98 99
100 100 100 100 100 100 100 100 100 100 53 99 100 100 100 8 3 5 0 11 92 100 100 5 10 5 100 100 48 8 23 1 54 95 53 0 2 87 27 57 64 100 96 92 98
99 87 78 92 48 35 19 100 72 100 100 100 100 100 100 63 5 3 2 6 56 100 100 19 13 49 100 100 25 5 2 98 90 71 42 22 6 72 60 100 64 100 100 91 100
87 70 98 99 100 99 76 10 58 10 4 23 84 84 100 74 1 3 4 1 6 100 100 100 69 63 100 100 57 46 74 92 5 42 74 76 23 7 28 34 24 100 100 100 100
13 98 100 100 100 58 99 100 74 83 0 4 0 6 5 5 3 0 0 0 4 100 100 100 67 39 100 100 78 29 98 5 4 15 96 44 65 100 69 14 98 32 66 100 100
2 0 1 4 40 72 88 100 91 68 1 2 5 4 27 74 53 11 1 0 4 100 100 100 100 28 100 100 78 28 16 5 0 4 23 89 66 74 91 100 98 13 71 100 99
4 1 2 5 4 17 41 100 83 6 1 12 3 5 97 100 100 100 22 0 0 95 100 100 100 86 100 100 43 8 5 11 60 87 43 79 96 100 65 97 48 10 25 46 100
0 5 5 37 5 11 90 100 55 0 7 98 37 58 81 100 100 100 100 0 5 100 100 100 100 98 100 100 45 99 5 12 8 99 100 94 100 83 99 72 5 5 5 8 5
2 5 74 80 4 74 100 100 59 0 29 93 66 100 100 100 100 100 42 0 5 98 100 100 100 98 100 100 96 100 9 5 98 91 70 53 86 100 51 39 58 4 5 5 5
17 44 21 25 26 94 100 88 2 0 0 3 7 35 100 100 100 38 2 0 6 100 100 100 100 100 100 100 100 100 100 95 39 48 79 4 89 63 41 100 51 3 36 50 13
100 100 85 64 66 100 100 57 1 0 0 30 100 75 18 75 100 7 1 0 57 100 100 100 100 100 100 100 100 36 39 40 5 77 64 8 43 5 100 100 76 78 63 12 5
100 100 100 98 100 100 100 5 0 0 0 1 100 88 72 100 46 100 0 3 100 100 100 100 100 100 100 100 100 58 78 91 7 99 100 21 100 100 99 100 16 83 0 1 2
100 100 100 100 99 100 27 5 5 5 90 0 56 99 100 100 97 85 100 35 100 100 100 100 100 100 100 100 78 100 100 99 34 14 2 73 8 5 5 34 0 8 0 13 0
100 100 100 100 43 90 98 43 5 5 2 3 9 91 96 72 85 100 100 44 100 100 100 100 100 100 42 100 100 44 62 100 100 96 38 6 34 7 56 83 66 3 5 79 95
100 85 36 99 100 100 99 100 5 5 2 4 5 7 43 40 100 100 100 67 100 100 100 100 100 97 100 100 100 89 100 100 100 64 54 4 9 5 89 51 10 44 90 19 100
100 96 100 100 99 97 88 55 13 12 5 0 9 0 71 100 94 92 100 100 100 100 100 100 100 100 100 49 100 100 100 100 100 100 100 57 5 5 5 62 9 92 20 5 5
100 93 100 92 98 69 13 64 11 72 6 5 0 0 54 19 77 100 100 68 100 100 100 100 100 100 46 100 99 66 100 100 100 100 100 96 73 8 96 100 84 88 34 5 5

GFSSW_prec_cloud_081.txt.gz
Cloud_Cover
63 52 6 4 0 0 0 0 0 0 99 59 20 54 6 5 8 3 0 0 2 0 0 0 0 0 0 0 0 0 0 0 4 98 100 61 5 98 81 100 90 100 100 100 100
36 100 100 5 3 0 0 0 0 0 3 97 97 25 8 58 4 28 5 5 0 0 0 0 0 0 0 0 2 0 0 3 70 100 66 20 4 1 100 97 36 78 93 100 100
26 66 100 35 2 0 0 0 0 0 0 5 100 100 100 100 100 96 96 31 3 0 0 4 4 4 0 0 74 0 0 0 39 100 100 2 0 95 100 100 21 75 100 100 100
100 37 100 100 1 4 1 0 0 0 0 3 2 47 68 100 99 100 97 92 39 6 47 40 8 0 0 0 9 87 37 98 0 11 90 0 0 0 97 100 13 71 100 100 100
100 98 82 100 10 6 3 5 0 4 0 5 2 5 67 66 5 46 5 55 5 5 4 5 1 0 0 0 15 3 73 33 0 34 51 1 4 5 78 100 96 67 17 100 100
100 100 79 18 5 43 90 25 26 0 0 5 62 22 34 38 3 5 1 0 29 6 1 19 1 0 0 98 95 0 5 3 0 27 32 30 84 89 64 100 100 99 32 93 100
100 100 99 100 76 60 22 100 100 6 1 41 100 100 49 6 1 0 0 0 0 30 0 25 4 3 0 93 100 0 1 0 63 59 83 7 16 78 59 100 100 18 24 44 99
100 100 100 100 100 100 98 100 100 100 32 5 6 91 100 49 100 7 5 0 0 5 2 5 56 43 1 14 90 15 41 0 14 57 29 19 12 44 29 96 100 99 52 90 98
100 100 100 100 100 100 100 100 100 100 90 8 74 29 95 100 100 100 98 44 0 3 4 5 5 13 0 3 93 100 96 36 9 71 5 4 15 0 38 94 80 8 65 100 99
100 100 100 100 100 100 100 100 100 100 24 12 5 8 44 73 100 100 100 100 25 0 4 5 91 47 4 4 100 100 100 44 11 52 73 18 6 4 88 100 67 6 29 98 99
100 100 100 100 100 100 100 100 88 48 65 45 5 5 5 68 100 100 100 100 100 45 5 13 94 83 5 18 26 100 100 96 2 67 71 83 4 0 39 7 3 0 49 76 73
100 97 100 100 100 100 100 100 46 5 32 71 97 98 99 29 73 100 100 100 100 100 5 2 94 100 5 41 17 100 100 99 0 66 94 20 1 1 11 5 27 39 69 72 95
100 100 100 100 100 100 100 100 78 100 94 100 100 81 100 98 78 100 100 100 100 100 53 5 73 79 5 66 16 92 100 100 2 5 48 4 0 66 31 2 76 99 84 76 21
100 100 100 81 71 100 100 100 100 100 100 100 100 100 100 100 100 100 100 100 100 100 81 5 86 85 32 87 31 100 100 100 6 84 2 4 4 2 4 5 4 11 5 13 21
100 100 25 98 100 79 77 74 99 54 7 16 83 5 94 99 8 100 98 100 100 100 51 6 54 100 14 100 65 100 100 100 6 5 0 2 22 5 70 5 0 0 33 19 5
14 8 100 100 100 98 81 83 86 77 32 4 41 76 6 5 13 5 5 5 5 2 1 5 66 99 99 100 100 100 100 100 6 5 4 14 91 6 26 4 2 2 5 32 99
38 8 5 5 78 80 71 36 96 61 5 40 52 25 5 5 13 6 5 2 5 5 45 5 5 100 99 100 100 100 100 100 25 5 5 63 55 0 79 24 6 2 6 6 33
12 3 10 5 1 0 3 36 98 0 0 9 5 0 0 0 2 4 0 5 5 18 34 100 59 100 100 98 100 100 100 100 12 5 5 84 95 81 32 65 22 5 4 2 0
5 6 26 4 0 4 46 100 23 0 0 3 2 61 16 2 0 5 5 5 2 5 5 1 5 100 100 19 100 100 100 100 96 57 97 100 48 100 90 94 100 39 24 0 0
68 100 96 0 5 9 97 4 1 0 0 0 2 82 100 100 73 8 5 10 12 25 63 10 61 67 100 100 97 100 100 100 100 100 38 91 88 87 33 77 82 85 0 0 1
100 100 99 7 34 94 97 55 1 0 0 0 0 46 100 100 100 100 71 1 5 97 100 79 60 18 100 14 100 100 100 100 100 32 100 9 49 23 73 100 14 84 5 1 4
100 100 100 100 100 100 100 86 5 1 0 0 0 0 99 100 100 100 83 83 15 30 12 84 100 96 100 93 100 100 100 76 100 72 95 77 18 98 8 23 95 86 5 5 0
100 100 100 99 100 100 100 100 80 11 3 0 0 85 12 100 94 84 76 100 99 5 90 100 56 100 100 20 97 100 57 100 100 15 100 30 35 98 100 69 100 14 61 5 2
100 100 100 100 94 48 100 100 63 11 1 5 0 50 93 7 100 100 46 69 99 100 53 89 6 6 82 51 99 100 100 100 100 100 99 5 14 99 100 99 73 96 5 25 6
100 100 61 98 100 76 46 17 41 5 10 4 0 0 10 63 9 46 93 100 100 100 96 10 5 89 100 100 100 100 100 100 29 100 99 92 87 31 45 47 42 4 5 3 5
100 97 94 67 91 100 65 95 88 29 32 5 6 2 38 88 77 77 81 100 92 100 86 6 5 92 100 100 100 100 79 97 86 100 100 100 100 100 97 5 13 100 67 27 8
100 100 100 87 97 97 94 84 79 83 5 32 1 0 3 0 52 94 100 100 100 100 58 40 18 95 91 100 100 100 82 97 100 100 100 100 100 100 100 96 36 90 7 4 37

GFSSW_prec_cloud_084.txt.gz
Cloud_Cover
93 98 47 17 18 1 7 5 3 0 0 0 0 0 4 92 95 89 3 18 5 2 1 0 0 0 0 0 0 0 0 0 0 0 0 5 3 2 100 38 13 97 100 100 100
20 100 79 95 93 5 87 70 5 0 0 0 0 0 2 99 100 98 94 100 51 58 54 5 0 0 0 0 0 0 0 0 2 1 4 43 0 0 100 89 24 100 100 100 100
100 100 100 100 100 72 100 100 83 0 0 0 0 0 0 66 100 97 100 93 15 18 78 5 5 4 0 0 0 0 0 0 3 17 5 6 0 0 100 90 94 100 98 100 100
100 100 100 100 100 100 90 100 100 8 2 0 4 0 0 50 3 58 17 96 64 5 3 1 1 0 0 0 0 65 5 3 6 44 2 0 0 0 99 95 72 100 100 100 100
98 100 100 100 100 100 100 100 100 98 4 4 5 5 41 0 1 3 5 5 16 5 4 28 3 0 0 0 0 6 46 0 5 4 4 0 1 5 10 98 25 100 100 100 100
97 100 100 100 100 100 100 100 100 100 21 11 38 35 93 13 4 4 23 5 2 4 0 0 0 0 0 0 0 0 6 2 2 1 5 2 3 20 0 100 41 48 100 100 100
100 100 100 100 100 100 100 100 100 73 16 72 100 95 100 94 4 100 79 5 5 2 0 0 0 5 0 0 5 0 1 5 5 5 1 1 0 5 1 100 68 5 95 100 100
100 98 100 100 100 100 100 100 100 96 87 89 100 96 98 72 51 28 10 63 24 98 97 0 0 5 4 5 5 2 34 9 36 21 80 2 0 0 4 66 100 5 26 65 100
100 100 100 100 100 100 100 100 100 100 100 100 96 84 100 100 28 12 29 99 99 100 100 9 6 14 11 5 12 8 38 98 33 16 13 0 0 5 2 5 99 53 100 93 57
100 100 100 100 100 100 100 100 100 100 100 61 94 47 87 100 100 53 26 52 87 96 100 100 99 14 69 4 34 5 4 34 100 51 42 13 1 15 0 0 7 98 92 52 69
100 100 100 100 100 100 100 100 100 6 97 50 100 30 100 100 99 76 21 19 5 66 100 98 99 12 8 2 9 5 5 2 100 100 99 63 0 30 2 0 28 98 54 34 100
100 100 100 100 100 100 100 100 100 98 96 56 100 100 100 100 100 96 99 8 5 59 74 100 100 34 5 48 5 10 5 5 100 100 99 48 1 87 2 5 5 29 100 56 100
100 90 100 100 100 100 100 100 100 100 98 100 100 100 100 100 100 99 51 100 99 94 97 100 100 20 6 8 11 7 5 5 99 100 99 52 0 4 3 2 5 5 1 42 41
100 93 98 100 100 100 100 100 100 100 100 100 100 89 100 100 100 100 100 100 99 100 48 91 100 100 44 93 59 16 5 83 64 100 100 3 0 0 1 0 0 0 5 7 48
100 100 100 92 100 100 100 100 100 100 100 100 100 100 100 100 100 100 100 100 100 100 10 100 100 100 100 100 35 98 9 68 22 100 72 12 0 0 0 0 0 0 0 1 22
100 100 60 94 100 100 100 100 100 80 56 100 100 100 100 100 100 100 100 100 98 31 0 21 100 10 68 18 44 100 99 5 5 100 97 58 4 2 3 1 0 0 0 0 50
86 65 100 98 76 58 83 100 99 78 77 74 66 100 42 69 100 100 100 100 100 35 15 66 43 17 0 5 66 86 94 5 5 66 100 69 4 5 38 2 0 5 58 4 2
6 26 24 91 16 7 17 6 98 100 100 100 93 0 6 6 6 35 39 7 5 46 96 37 27 52 5 1 80 87 98 5 51 17 100 69 4 5 4 0 0 4 5 82 5
5 6 51 3 0 3 97 69 0 67 4 17 9 5 53 96 88 62 6 1 3 5 4 5 4 48 5 84 100 57 71 12 8 5 100 63 10 5 5 5 2 5 5 3 0
81 90 83 4 3 29 100 2 1 3 1 2 0 0 0 1 24 13 57 25 8 2 0 3 0 7 12 94 39 73 21 5 64 92 100 100 75 3 5 15 5 10 5 5 41
98 100 99 5 66 94 100 19 0 0 0 0 0 0 0 9 91 91 6 3 65 25 4 4 2 60 100 14 6 25 23 83 73 29 100 100 88 5 0 11 8 5 5 0 4
100 100 100 63 96 98 100 96 0 0 1 3 0 0 0 76 100 100 99 49 100 99 7 0 1 1 4 95 44 37 23 43 40 11 100 100 100 9 5 0 0 50 5 5 2
100 100 100 100 100 100 100 100 100 91 6 5 5 0 0 50 24 61 38 100 91 93 14 28 8 6 22 93 51 66 80 93 70 82 100 100 100 78 24 24 74 70 6 58 27
100 100 100 100 32 79 100 100 100 100 86 78 4 1 4 5 11 90 99 97 100 67 37 100 27 3 85 97 86 100 100 100 100 89 94 100 100 95 85 87 97 98 76 99 25
100 100 93 98 100 93 43 97 100 100 91 54 6 4 3 26 1 39 100 97 100 100 89 100 70 5 100 100 100 100 100 100 91 89 100 100 100 5 60 85 96 73 94 83 5
100 100 100 10 91 100 100 100 86 100 71 5 5 5 4 2 1 68 100 100 100 100 100 92 15 5 5 100 100 100 100 100 100 100 100 100 56 31 86 100 100 100 91 55 46
100 99 100 56 90 97 81 100 100 98 14 87 12 24 11 1 0 0 65 79 100 100 100 90 53 5 1 100 100 100 80 85 85 100 100 100 100 100 100 100 100 100 100 100 9

GFSSW_prec_cloud_087.txt.gz
Cloud_Cover
19 10 8 7 0 21 81 50 65 5 5 5 55 5 0 0 8 3 3 8 5 5 5 3 3 0 0 0 0 0 0 0 0 0 0 0 0 0 1 62 100 100 100 100 100
100 47 33 27 49 4 23 66 95 81 37 74 90 56 4 4 15 0 3 59 92 93 35 4 5 5 4 0 0 0 0 0 0 0 0 0 0 0 0 6 100 100 100 100 100
1 1 5 12 97 44 5 44 100 100 100 100 99 100 5 39 34 0 0 2 10 59 83 5 35 22 5 0 0 0 0 0 0 0 0 0 0 0 0 0 100 100 100 100 100
5 7 5 11 60 100 96 91 100 100 100 100 100 100 39 61 23 0 0 0 0 1 2 5 1 5 5 0 0 0 0 0 0 0 0 1 0 0 0 2 49 100 100 100 100
5 22 23 97 100 100 100 100 100 100 100 100 100 100 100 7 31 4 0 0 0 2 3 3 0 2 4 0 0 0 0 0 0 0 0 0 0 0 0 3 31 100 100 100 100
12 54 9 36 100 100 100 100 100 100 100 100 100 100 100 100 5 5 71 5 2 3 82 2 0 0 5 4 0 0 0 3 0 0 0 4 0 0 0 0 9 100 100 100 100
5 8 100 76 99 100 100 99 100 86 100 100 100 100 100 100 10 30 100 7 84 57 3 0 0 0 0 0 0 0 0 5 5 1 0 4 1 0 0 0 7 9 100 100 100
7 100 100 87 79 56 100 100 100 100 100 100 100 100 100 100 74 100 100 100 98 1 5 0 9 100 4 0 2 5 5 5 15 19 5 4 4 0 0 0 11 45 99 100 100
16 94 100 100 100 100 100 100 100 98 100 96 100 100 100 100 100 100 100 100 100 24 5 2 94 98 4 5 5 5 0 5 3 5 3 2 4 0 0 0 3 26 89 100 100
24 82 100 100 100 100 100 100 100 100 100 45 100 100 100 100 100 100 100 91 100 100 80 56 7 84 54 6 4 18 2 5 3 3 3 2 11 0 0 0 0 37 93 76 96
100 27 86 100 100 100 100 100 100 92 100 83 100 100 100 100 100 100 88 100 99 100 100 21 3 100 92 5 4 27 5 13 6 3 5 6 24 0 1 0 10 69 39 14 46
100 100 100 94 100 100 100 100 100 100 92 56 100 100 100 100 100 100 93 46 98 88 100 100 97 59 1 5 9 16 8 45 5 5 5 5 68 14 0 0 1 17 48 0 0
100 100 100 100 100 100 100 100 100 92 100 100 100 84 100 100 100 100 12 93 100 100 100 100 97 8 5 84 100 95 80 76 5 38 83 42 27 96 0 0 1 2 0 0 0
82 100 100 100 100 99 98 100 100 100 100 100 100 68 100 100 100 100 100 100 100 100 100 87 100 94 81 8 100 84 44 54 8 21 50 40 77 88 0 0 0 0 4 0 0
0 42 100 100 97 100 100 100 70 100 100 100 100 100 100 100 100 100 100 100 92 100 100 100 100 100 6 90 92 94 91 18 5 5 88 32 78 52 2 0 0 0 0 0 1
0 1 4 100 82 100 100 100 82 99 90 100 100 100 100 100 100 100 100 97 99 92 48 88 100 38 99 100 55 81 58 5 3 5 67 2 84 86 26 0 0 0 0 0 0
12 3 5 2 41 36 100 100 96 91 82 74 100 100 100 100 100 100 100 100 90 94 34 100 100 100 61 25 85 100 18 3 4 5 5 3 91 54 15 0 0 0 1 0 0
5 5 5 5 4 0 5 5 88 4 98 21 1 90 100 100 100 100 100 100 100 100 100 100 100 100 100 100 100 20 29 5 48 21 0 1 98 10 90 2 2 0 5 56 0
4 6 89 4 5 3 3 22 3 5 74 81 10 5 42 81 98 100 100 100 100 100 100 100 100 100 100 100 100 84 4 39 22 10 0 5 70 100 91 8 3 2 1 4 0
53 96 100 1 5 7 47 1 3 1 5 13 98 11 5 24 40 100 100 48 69 78 96 95 61 97 97 84 45 8 93 98 13 5 6 28 14 100 100 25 2 2 0 0 0
95 100 65 7 11 67 86 4 0 21 48 16 4 9 3 0 4 46 100 100 98 70 75 79 29 100 100 100 92 80 54 84 61 5 66 8 31 96 100 24 5 5 3 0 0
100 100 19 5 100 84 100 85 3 0 0 5 6 5 24 5 0 0 2 99 100 100 100 90 99 100 100 100 100 100 80 99 27 5 95 25 5 84 100 100 8 5 4 5 0
100 100 97 100 99 100 97 62 77 19 0 3 5 4 3 2 2 4 4 52 100 100 100 100 77 6 94 80 5 5 98 100 100 97 21 40 69 55 95 100 25 5 5 6 64
100 100 100 100 59 99 74 94 82 55 24 12 5 13 5 0 2 2 0 0 98 43 100 98 100 65 16 82 49 99 100 100 100 26 31 8 50 5 100 100 100 92 52 100 100
100 100 62 91 100 98 93 57 95 99 98 100 96 20 8 48 5 4 0 0 5 62 100 82 100 13 5 1 5 91 100 100 32 5 5 12 61 100 58 93 100 100 90 99 88
100 100 100 60 74 100 100 100 100 100 100 93 100 97 70 100 34 1 0 41 42 74 100 100 100 65 5 5 25 100 99 95 78 27 5 5 12 100 94 72 100 100 100 100 100
100 100 100 100 100 97 97 100 100 100 100 100 100 84 76 4 13 23 6 2 55 68 100 100 100 100 34 11 100 98 0 21 74 89 51 12 82 100 100 26 66 100 100 100 100

GFSSW_prec_cloud_090.txt.gz
Cloud_Cover
100 98 46 2 4 0 0 0 0 0 0 4 4 0 0 100 36 5 5 0 0 0 2 6 5 3 0 0 0 0 0 0 0 0 0 0 0 0 0 0 0 0 93 98 100
30 4 0 0 2 3 0 0 0 0 4 4 14 4 5 64 100 39 16 4 0 0 0 7 22 5 5 4 0 0 0 0 0 0 0 0 0 0 0 0 0 0 88 100 100
0 0 0 0 0 0 0 0 0 5 0 0 11 99 13 47 100 100 100 5 1 4 0 0 0 5 0 0 0 0 0 0 0 0 0 0 0 0 0 0 3 5 9 100 100
5 1 4 3 0 0 0 0 4 4 2 2 1 89 100 100 100 100 100 100 74 1 0 0 0 4 0 0 0 0 1 0 0 0 0 0 0 0 0 0 0 3 2 100 100
69 51 5 4 0 2 0 3 5 5 5 0 5 56 100 100 100 100 100 100 100 5 4 0 0 0 12 1 0 0 0 0 0 0 0 0 0 0 0 0 0 2 12 87 100
1 2 2 5 5 0 0 5 5 5 11 3 7 100 100 100 100 100 100 100 100 84 2 0 0 1 26 0 0 0 0 0 0 0 0 0 0 0 8 0 0 5 74 84 100
95 45 0 3 0 0 0 5 5 5 5 74 18 100 100 100 100 100 100 100 100 100 54 2 0 0 2 0 0 0 5 0 0 2 0 0 0 5 23 6 10 3 78 100 100
12 5 1 4 5 5 5 5 31 5 21 20 90 90 91 100 100 100 100 100 100 100 46 47 4 3 5 1 4 4 0 2 0 4 0 0 0 5 5 9 39 25 100 100 100
15 50 5 5 5 5 5 79 17 32 51 21 71 73 98 100 100 100 100 100 100 100 98 100 81 99 84 2 6 1 5 5 4 2 0 3 0 0 5 2 23 59 100 100 98
0 0 2 5 27 82 87 85 31 97 52 76 99 23 100 100 100 100 100 100 100 100 100 100 100 100 100 100 86 5 4 5 2 5 5 0 2 0 1 5 0 34 100 100 98
0 0 0 4 15 10 99 100 68 38 100 100 55 100 100 100 100 100 100 100 100 100 100 100 100 34 100 87 92 8 18 5 5 5 5 0 5 5 5 5 5 29 86 100 39
0 0 0 0 0 20 73 100 98 78 100 100 100 100 100 100 100 100 100 100 100 100 100 96 100 100 100 5 5 50 4 89 15 3 4 5 1 2 5 7 8 0 48 70 54
0 0 0 0 0 0 54 100 100 88 76 100 100 100 100 91 100 100 100 100 100 100 100 100 100 100 80 36 62 100 48 9 36 3 6 5 2 4 5 5 63 5 1 0 24
0 0 0 0 0 0 2 84 100 94 100 100 100 100 100 100 61 100 100 100 100 100 100 100 100 94 100 100 100 100 31 3 6 36 86 8 74 2 5 4 36 0 0 1 0
3 0 0 0 28 2 0 0 18 100 44 16 99 100 100 99 100 98 100 99 100 100 100 100 100 100 66 97 44 100 31 5 12 41 6 36 65 1 0 0 48 0 0 0 0
2 0 1 0 33 5 0 0 8 63 98 3 4 100 100 100 100 100 100 100 100 100 100 100 100 100 99 100 100 100 42 92 8 5 74 15 64 61 0 9 57 3 0 0 0
1 5 5 4 0 0 0 0 26 71 5 41 4 14 100 100 100 100 100 100 100 100 100 100 100 100 100 100 100 100 100 82 5 70 100 29 99 100 3 71 96 4 0 0 0
5 5 5 5 4 4 0 0 80 0 0 0 5 1 56 100 100 100 100 100 100 100 100 100 100 100 100 100 100 100 98 3 5 100 21 95 100 100 5 98 100 5 0 0 4
2 20 62 5 3 5 4 2 0 0 0 1 2 5 5 97 100 100 100 100 100 93 100 100 99 89 100 100 100 46 99 89 31 6 59 100 100 100 8 54 100 18 0 0 5
30 33 50 0 5 8 96 2 0 0 0 0 2 5 10 97 89 100 100 100 100 100 100 98 100 100 100 100 100 100 100 100 54 37 99 100 100 100 10 93 98 99 4 0 0
21 90 8 5 6 96 88 10 0 0 0 0 0 1 1 14 21 76 100 100 100 100 100 100 100 100 100 100 100 100 100 100 97 95 63 97 100 100 4 100 100 100 7 1 0
32 100 92 5 100 100 100 40 0 0 0 0 0 0 0 0 1 5 84 100 100 100 100 100 100 100 100 100 100 100 100 99 93 5 29 54 100 100 1 100 100 100 80 36 5
99 95 96 87 100 99 100 88 5 5 0 0 0 4 2 1 2 1 5 88 42 11 43 95 100 80 100 100 100 100 100 100 89 52 44 77 100 100 4 85 100 100 100 43 5
90 100 99 100 100 35 78 62 52 4 5 1 3 2 5 5 18 16 5 73 47 81 30 8 12 99 100 100 100 100 100 100 100 98 100 52 100 100 5 94 100 100 100 100 80
100 81 20 94 98 100 82 99 84 98 5 20 27 5 33 58 20 5 3 14 5 0 5 64 5 56 99 100 100 100 100 100 87 69 4 82 77 100 20 49 100 100 100 100 100
98 100 38 5 54 61 100 100 88 16 36 74 66 100 100 98 82 5 5 5 4 1 7 91 82 29 94 86 100 6 5 8 5 5 0 2 7 100 75 58 99 74 100 100 100
99 100 100 74 79 37 78 65 30 34 97 100 100 100 100 100 100 80 100 28 87 5 11 92 100 66 51 70 100 97 5 5 3 5 5 5 33 77 92 100 98 100 100 100 100

GFSSW_prec_cloud_093.txt.gz
Cloud_Cover
0 0 1 0 2 5 0 0 0 0 0 0 0 0 4 2 38 19 5 3 0 29 5 5 0 0 0 0 5 3 0 0 0 0 0 0 0 0 0 0 0 0 0 0 14
5 4 4 0 0 0 0 0 0 0 0 0 0 0 0 3 5 38 60 5 5 90 38 40 5 0 0 0 0 0 0 0 0 0 0 0 0 0 0 0 0 0 0 0 25
4 6 5 0 0 0 0 0 1 0 0 4 1 0 0 0 3 5 5 37 57 6 100 98 64 3 0 0 0 0 0 0 0 0 0 0 0 0 0 0 0 0 0 0 89
24 5 4 0 0 0 0 3 0 0 0 0 4 5 0 9 3 13 4 5 94 66 53 100 100 11 0 0 0 0 0 0 0 0 0 0 0 0 0 0 0 0 0 0 0
71 5 5 7 5 2 3 0 0 0 0 5 15 1 0 1 68 18 66 25 100 100 13 100 100 64 0 5 0 0 2 0 0 0 0 0 0 0 0 0 0 4 0 0 0
58 5 13 18 5 2 12 0 0 2 0 2 83 1 23 4 100 95 99 73 99 97 44 100 100 100 22 1 4 0 0 0 0 0 0 0 0 0 0 0 0 5 0 0 0
76 97 65 82 5 5 4 5 0 0 0 14 100 36 17 60 47 100 100 100 100 100 100 100 100 100 100 4 5 0 0 0 0 0 5 0 0 0 0 0 0 5 86 35 35
14 9 74 100 90 16 19 10 0 0 0 0 100 26 4 63 74 100 87 100 100 100 100 99 94 100 100 17 22 6 4 5 0 5 7 5 1 5 4 0 0 1 30 39 93
9 42 82 30 30 61 51 28 0 0 0 2 23 37 2 74 100 94 100 100 100 100 100 100 30 100 100 100 98 83 5 25 0 5 66 51 1 5 5 0 0 0 0 6 62
5 67 22 5 8 27 10 0 0 0 0 41 15 36 5 95 100 100 100 100 100 100 100 100 40 98 100 100 100 61 5 89 6 31 64 72 5 4 5 2 0 0 0 0 19
100 100 85 100 18 10 6 0 0 0 0 0 0 64 92 100 100 100 100 100 100 100 100 100 14 8 100 100 100 100 5 67 6 16 46 11 13 0 38 5 0 0 0 2 9
100 100 93 65 35 2 0 0 14 27 72 0 0 3 100 42 100 100 100 100 100 100 100 100 100 96 100 100 100 99 12 94 6 32 82 36 98 5 20 10 2 0 0 0 2
100 81 6 5 2 0 0 0 0 0 73 0 1 1 98 96 100 100 100 100 100 100 100 100 100 100 100 100 100 100 92 100 5 18 13 100 100 5 34 16 2 0 4 0 0
61 5 4 0 0 0 0 0 0 7 50 0 0 1 17 100 100 100 100 100 100 100 100 95 100 100 100 100 100 100 100 73 2 5 5 95 100 6 63 20 5 3 5 1 0
97 5 0 0 2 2 0 0 0 51 0 0 0 0 97 100 100 100 100 100 100 100 100 100 100 100 100 100 100 100 100 56 0 52 36 100 96 87 70 99 33 0 5 1 0
81 5 4 2 0 0 0 0 15 10 1 0 0 0 42 100 100 100 100 100 100 100 100 100 100 100 100 100 100 100 100 43 35 76 74 100 98 100 100 100 49 3 5 2 0
5 1 5 5 0 0 0 0 20 1 0 0 0 0 4 100 100 100 100 100 100 100 100 100 100 100 100 100 100 100 100 80 100 51 100 96 100 100 100 100 70 3 1 4 0
52 5 5 2 4 1 0 0 52 0 0 0 0 0 0 97 100 100 100 100 100 100 100 100 100 100 100 100 100 100 100 75 8 82 100 90 100 100 100 27 98 13 5 5 5
5 8 20 0 2 5 1 0 0 0 0 0 0 0 0 0 100 100 100 100 100 100 100 98 99 100 100 100 100 92 100 98 61 58 5 83 98 100 100 70 99 90 5 5 5
5 73 10 0 3 18 5 0 0 0 0 0 0 0 0 0 23 100 100 100 100 100 100 100 100 100 100 100 100 100 96 99 14 12 81 96 100 100 100 96 12 100 5 46 5
50 56 1 3 5 72 60 3 0 0 0 0 0 0 0 0 0 19 100 100 100 100 100 100 100 100 100 100 100 100 100 100 88 84 86 97 100 100 100 46 94 100 10 31 26
98 95 70 5 100 99 100 5 0 0 0 0 0 0 0 0 0 0 6 100 100 100 100 100 100 100 100 100 100 100 100 84 2 2 6 82 100 100 100 100 100 100 81 42 100
100 67 100 100 96 100 72 18 5 4 1 0 0 0 0 0 0 0 0 1 8 77 100 100 100 100 100 100 100 100 100 51 61 17 65 58 97 100 100 100 100 100 100 98 100
100 93 71 100 49 92 78 95 57 5 5 5 2 1 72 69 5 4 5 0 2 69 5 14 5 89 100 100 100 100 100 100 76 30 100 100 100 100 100 100 90 27 99 50 100
100 60 27 93 100 100 98 41 25 91 31 24 28 5 2 5 7 21 5 0 0 0 5 6 23 17 100 100 100 100 100 100 100 66 5 99 100 100 100 100 100 7 52 86 43
98 79 71 6 65 29 91 78 54 96 75 5 5 5 74 84 100 100 100 97 5 16 5 100 95 99 47 99 100 100 100 100 100 100 100 100 100 100 100 100 100 6 6 100 96
70 6 97 24 64 64 94 16 26 76 70 5 77 100 100 100 100 100 86 44 35 18 19 8 73 99 96 19 32 49 86 6 20 88 88 7 98 100 100 100 100 99 5 100 70

GFSSW_prec_cloud_096.txt.gz
Cloud_Cover
16 76 38 5 5 3 0 3 0 0 0 0 0 0 0 0 0 0 0 0 0 0 0 1 0 1 76 56 11 0 0 0 0 0 0 0 0 0 0 0 0 0 0 0 0
81 5 5 1 5 0 1 0 0 0 0 3 0 0 0 0 3 0 0 0 0 0 0 0 0 0 30 100 93 2 0 0 0 0 0 0 0 0 0 0 0 0 0 0 0
94 5 15 5 0 0 0 5 4 2 0 0 2 0 0 0 3 5 5 2 0 0 0 0 0 2 1 94 100 77 4 0 0 0 0 0 0 0 0 0 1 0 0 0 0
92 92 16 5 4 3 4 5 2 3 2 0 3 13 0 0 4 0 0 0 0 0 0 0 0 0 0 32 100 100 12 3 0 0 0 0 0 0 0 0 0 0 0 0 0
20 58 24 11 18 8 54 5 5 5 4 5 21 83 5 2 2 0 0 5 5 2 4 4 0 5 0 44 100 100 8 32 0 0 0 0 0 0 0 0 0 0 0 0 0
68 56 5 5 5 16 7 19 16 66 25 8 44 87 1 5 5 0 0 3 0 2 5 44 7 5 24 92 100 100 100 17 4 0 0 0 1 5 0 0 0 0 0 0 0
16 5 5 25 18 12 8 36 5 8 42 22 85 12 20 47 31 1 0 0 5 5 11 100 100 100 52 61 100 100 100 58 5 1 50 0 1 5 5 5 0 0 0 0 0
75 70 99 5 13 74 12 5 5 5 8 9 7 5 50 6 0 0 3 17 20 62 100 100 100 100 100 87 100 100 100 100 42 36 69 5 4 5 5 5 5 0 0 0 0
100 50 27 29 14 88 24 5 4 78 100 71 5 12 10 0 0 0 5 64 61 96 100 100 100 100 100 100 100 100 100 100 28 67 71 5 6 9 4 32 32 2 0 0 0
71 75 99 92 86 8 4 24 86 100 100 100 43 1 0 0 0 0 1 26 100 100 100 100 100 100 100 100 100 100 96 100 96 100 85 5 27 63 4 5 95 4 0 0 0
100 100 46 5 5 21 100 100 100 100 100 5 5 0 0 0 0 0 0 61 100 100 100 100 91 98 100 100 100 100 100 100 100 96 15 5 81 6 4 6 80 5 4 0 0
100 90 5 10 97 100 100 90 95 4 6 24 0 0 0 0 0 0 0 5 100 100 100 100 13 93 100 100 100 100 100 100 100 9 13 56 100 99 4 5 95 5 5 0 0
100 26 13 97 59 94 74 10 95 15 21 0 0 0 0 0 0 0 0 5 79 100 100 98 100 100 100 100 100 100 100 100 100 24 5 60 90 100 4 8 34 5 48 0 0
84 100 100 94 78 97 100 92 5 21 6 0 0 0 0 0 0 0 0 4 10 100 100 73 100 100 100 100 100 100 100 100 100 71 5 55 100 100 2 8 48 5 5 4 0
100 100 100 100 31 5 2 0 0 94 0 0 0 0 0 0 0 0 0 3 82 100 100 86 100 100 100 100 100 100 100 100 100 100 13 12 57 100 33 16 88 3 37 5 0
100 99 72 44 6 3 0 0 39 23 0 0 0 0 0 0 0 0 0 2 100 100 100 100 100 100 100 100 100 100 100 100 100 100 4 46 74 100 87 48 99 5 88 10 1
46 23 15 6 4 1 0 0 1 0 0 0 0 0 0 0 0 0 0 0 100 100 100 100 100 100 100 100 100 100 100 100 100 7 11 98 76 100 99 43 97 5 99 17 5
9 69 18 5 7 1 3 0 0 0 0 0 0 0 0 0 0 0 1 1 82 100 100 100 100 100 100 100 100 100 100 98 100 100 100 100 22 96 100 97 6 14 98 9 5
69 49 8 5 2 2 1 0 0 0 0 0 0 0 0 0 0 0 0 34 11 100 100 100 100 100 100 100 100 100 52 100 100 92 5 96 67 54 100 100 7 50 99 83 15
60 78 5 7 0 6 0 0 0 0 0 0 0 0 0 0 0 0 0 2 74 68 100 100 100 100 100 100 100 100 100 100 100 100 47 47 60 100 100 100 9 40 73 83 28
95 95 27 12 3 67 4 0 0 0 0 0 0 0 0 0 0 0 0 0 4 51 100 90 100 100 100 100 100 100 100 100 100 92 61 66 100 100 100 100 91 10 35 83 94
100 98 47 51 94 89 38 5 0 0 0 0 0 0 0 0 0 0 0 0 0 8 90 94 92 100 100 100 100 100 100 60 27 6 9 43 83 98 100 100 100 5 5 91 100
100 96 100 76 85 100 100 91 18 6 3 0 0 0 1 1 0 0 0 0 0 5 24 73 21 100 100 100 100 100 100 74 20 64 8 40 91 43 79 100 100 95 100 100 100
100 100 98 100 54 82 100 100 98 88 16 5 21 57 96 21 32 5 5 2 3 98 20 32 6 10 100 100 100 100 100 62 7 5 17 9 96 100 100 100 100 100 100 67 83
100 75 99 92 31 99 99 100 100 100 98 96 92 30 11 5 7 55 7 5 1 58 96 100 29 53 21 100 100 100 100 100 98 71 9 90 99 100 100 100 100 100 100 100 100
100 73 100 99 98 90 90 74 100 100 97 96 71 44 100 74 6 100 75 88 100 100 38 89 87 63 40 90 100 100 94 98 100 100 100 100 99 100 100 100 100 100 100 100 80
100 90 88 99 97 100 89 94 96 100 68 74 38 98 99 94 100 100 100 43 90 90 100 100 96 99 22 57 76 32 100 83 94 100 16 4 88 100 100 100 100 100 100 100 100

GFSSW_prec_cloud_099.txt.gz
Cloud_Cover
80 60 23 5 5 1 3 9 4 0 0 0 0 0 0 0 0 0 0 0 0 0 0 0 0 0 0 0 0 0 0 43 100 2 0 0 0 0 0 0 0 1 1 0 0
100 100 100 97 94 82 72 23 5 5 0 0 0 0 2 0 0 0 0 0 0 0 0 0 0 0 0 0 0 0 0 19 100 48 0 0 0 0 0 0 0 5 5 54 0
100 95 88 44 87 93 6 10 78 5 0 0 0 0 0 0 3 0 0 0 0 0 0 0 0 0 0 0 0 0 0 5 64 100 64 0 0 0 0 0 0 5 10 8 5
100 100 100 100 100 96 100 87 6 5 13 22 18 23 5 5 4 0 2 0 0 0 0 0 0 0 0 0 0 0 4 1 5 100 99 5 1 0 0 0 0 0 0 0 0
100 92 100 100 96 100 96 100 97 5 5 5 6 19 5 4 2 0 5 8 1 0 0 0 0 0 0 0 0 0 4 5 5 99 100 95 4 0 0 0 0 2 3 0 0
84 98 98 74 6 13 76 5 8 5 15 6 5 7 5 4 5 4 5 40 12 5 4 1 2 4 0 0 0 0 0 44 7 97 100 100 38 0 0 4 0 0 13 0 0
100 100 100 100 99 98 93 100 13 48 99 86 53 5 5 0 3 5 5 5 5 5 5 0 5 5 5 5 1 0 4 100 45 97 100 100 77 0 38 5 2 0 21 4 0
100 100 100 100 37 12 22 10 76 75 79 13 5 5 5 2 9 94 78 100 100 95 5 0 2 5 7 85 15 86 67 72 100 99 100 100 99 0 37 4 1 5 5 5 0
100 100 100 100 100 90 17 5 52 54 10 100 72 5 0 2 69 100 100 100 100 89 1 5 5 78 100 92 100 100 100 100 100 58 79 100 100 20 74 5 5 5 1 5 0
100 100 100 100 76 29 36 8 24 69 98 23 5 11 5 40 100 100 100 100 76 0 0 5 34 6 59 100 21 100 100 100 100 40 85 100 100 68 91 14 5 5 1 5 1
100 100 100 100 100 100 100 100 100 100 100 5 5 18 10 98 56 100 6 31 5 0 0 2 5 1 23 100 100 100 100 100 100 100 99 100 100 100 100 51 31 5 5 4 4
43 100 100 100 100 100 100 100 89 14 26 62 6 1 0 18 97 33 5 0 0 0 0 0 0 77 100 100 100 100 100 100 100 94 68 100 100 100 100 45 5 5 5 5 5
100 100 100 87 88 94 93 70 30 9 5 43 5 4 5 1 0 0 0 0 0 0 0 0 1 58 100 100 99 100 100 100 100 100 58 98 62 100 100 95 5 5 13 5 5
100 100 95 25 81 71 25 9 5 5 4 4 1 5 14 5 0 0 0 0 0 0 0 0 0 87 93 100 100 100 100 100 100 100 16 97 97 99 100 95 5 5 5 4 57
92 100 100 100 100 64 45 14 5 79 33 3 0 5 5 2 0 0 0 0 0 0 0 0 0 100 12 100 100 100 100 100 100 100 68 5 61 100 100 48 5 5 8 5 86
61 43 30 100 95 100 100 98 97 87 14 4 4 0 0 0 0 0 0 0 0 0 0 0 0 83 66 100 100 100 100 100 100 100 60 98 100 100 100 100 9 5 11 5 5
100 48 93 100 70 20 7 44 52 3 1 2 0 0 3 2 0 0 0 0 0 0 0 0 0 17 100 100 100 100 100 100 100 100 62 98 100 100 100 100 9 24 79 84 5
97 43 82 37 49 13 5 35 15 3 0 0 0 3 2 0 0 0 0 0 0 2 0 0 2 37 100 100 100 100 100 100 100 100 100 100 100 100 100 100 46 41 100 91 17
61 49 89 96 89 10 17 60 39 39 5 4 5 4 0 1 0 0 0 6 97 14 4 15 5 47 100 100 100 100 88 93 100 100 100 100 90 96 74 100 100 15 94 99 21
80 99 90 100 93 47 5 5 15 2 0 0 0 0 0 0 0 0 0 4 100 29 5 99 4 29 100 100 100 100 100 100 100 100 100 100 100 100 100 100 100 68 38 76 62
100 99 73 98 70 96 5 5 4 0 0 0 0 0 0 0 0 0 0 2 0 75 8 26 51 34 100 100 100 100 100 100 100 100 100 100 100 100 100 100 100 96 51 100 5
100 100 47 100 88 97 50 5 0 3 0 0 0 0 0 0 5 2 0 0 0 0 2 43 78 61 90 100 100 100 100 100 100 100 100 100 100 100 100 93 100 100 68 12 5
100 66 69 100 98 100 92 100 95 19 1 0 0 0 0 0 0 0 0 0 0 1 3 97 35 9 11 100 100 100 100 100 100 100 100 100 100 100 100 100 100 100 100 100 5
100 100 98 100 64 94 100 100 100 67 33 17 5 4 2 0 4 4 5 24 13 51 54 5 0 20 72 100 100 100 100 100 100 100 100 100 100 100 100 100 100 100 100 100 85
100 41 99 100 90 84 95 98 100 100 100 98 57 13 32 74 53 100 99 98 100 92 10 83 11 4 32 100 100 100 100 100 100 100 100 100 100 100 100 96 100 100 100 95 98
100 76 100 100 100 100 88 86 100 100 100 100 100 100 100 98 99 100 100 96 93 100 100 84 86 96 78 98 43 100 100 100 100 100 100 100 84 65 100 85 97 84 100 100 99
95 87 78 89 100 100 97 90 100 100 100 100 100 100 99 99 100 35 25 56 78 63 100 46 46 94 79 75 98 6 100 100 100 100 100 100 100 100 86 100 100 100 100 100 100

GFSSW_prec_cloud_102.txt.gz
Cloud_Cover
65 33 97 84 91 100 37 5 6 25 6 16 5 0 5 2 0 0 0 0 0 0 0 0 0 0 0 0 0 0 0 0 0 0 0 2 74 93 3 0 0 0 0 0 40
68 77 100 90 100 100 97 100 100 100 100 69 6 43 13 4 0 0 0 0 0 0 0 0 0 0 0 0 0 0 0 0 0 0 0 1 8 100 100 5 0 0 0 46 44
84 47 99 100 100 100 100 100 100 55 74 17 7 5 5 1 0 0 3 2 0 0 0 0 0 0 0 0 0 0 0 0 0 0 0 4 8 100 100 35 0 0 0 15 1
97 100 37 100 96 100 100 100 100 100 100 100 89 9 5 0 0 0 5 5 0 0 0 0 0 0 0 0 0 0 0 0 0 0 0 1 4 96 100 95 2 0 0 0 0
100 100 100 100 100 100 100 100 100 100 100 80 38 16 5 5 4 12 14 5 4 0 0 0 0 0 0 1 0 0 0 0 0 0 0 0 4 46 100 100 43 5 0 0 0
100 100 100 100 100 100 100 97 100 90 76 26 5 7 5 31 85 20 30 48 5 1 0 0 0 0 0 1 3 0 0 0 0 0 0 0 2 15 100 100 90 5 2 5 0
100 100 100 100 100 100 99 80 100 99 72 89 10 92 55 21 36 100 68 5 5 5 0 30 100 100 100 100 80 4 5 0 0 11 8 0 1 100 100 100 100 5 4 5 3
100 100 100 100 100 100 75 100 100 100 100 100 95 100 89 5 5 5 75 19 14 4 0 64 100 100 100 100 100 6 5 4 3 100 99 44 0 100 92 92 100 61 4 5 5
100 100 100 100 100 100 100 100 100 100 100 100 100 88 7 5 17 5 20 52 31 6 5 89 100 100 100 100 33 2 3 5 100 100 87 64 4 98 90 70 100 91 100 14 5
100 100 100 100 100 100 100 89 100 100 100 100 100 100 68 14 84 100 57 48 22 0 4 5 52 35 56 4 0 4 52 5 12 100 100 100 64 98 89 64 100 100 100 91 9
100 100 100 100 100 100 100 100 100 100 100 100 100 100 100 100 99 13 5 5 4 5 5 5 0 0 0 0 0 4 20 5 33 100 100 100 96 98 95 9 100 100 100 100 51
100 100 100 100 100 100 100 100 100 97 99 100 100 100 100 39 5 5 13 6 6 3 0 0 0 0 0 0 0 0 5 2 6 100 100 100 100 100 100 51 100 100 100 86 100
100 100 100 100 100 100 100 100 100 100 96 100 100 100 99 99 49 24 5 5 3 0 0 3 0 0 0 1 0 0 5 40 22 100 98 99 68 100 100 9 100 100 100 29 5
100 100 100 100 100 100 100 100 100 100 100 100 99 100 100 96 31 60 39 18 0 0 0 0 0 0 0 5 12 0 0 76 100 100 87 100 73 98 100 97 100 86 73 73 5
100 100 100 100 100 100 100 100 100 100 46 10 2 22 99 100 100 100 65 5 0 0 0 0 0 0 0 0 4 5 46 100 100 100 100 100 98 100 100 100 100 100 100 44 5
55 84 77 100 100 98 99 98 100 97 6 33 5 5 5 7 5 5 0 4 0 1 0 0 0 0 0 3 4 26 80 100 100 100 65 100 47 95 100 100 100 100 100 41 6
100 93 90 90 100 100 100 100 80 3 5 77 77 5 4 3 3 0 0 1 0 0 0 0 0 0 0 0 0 0 32 92 92 71 83 100 77 96 100 100 100 100 100 86 5
48 91 100 100 100 100 100 89 11 4 5 96 5 0 0 0 5 5 0 0 0 5 2 0 0 70 2 0 0 0 26 42 100 95 100 100 76 52 100 100 100 100 100 100 45
94 22 47 91 100 100 100 78 0 4 0 0 81 0 0 0 0 0 1 3 6 2 8 68 7 90 79 1 0 0 80 100 93 100 100 100 100 100 100 100 100 100 100 100 100
100 79 26 8 54 100 100 26 0 4 4 0 0 5 5 22 62 5 2 0 56 33 53 64 12 11 87 32 0 0 14 100 100 100 100 100 100 100 100 100 100 100 100 100 99
90 99 3 5 72 100 75 4 4 3 1 0 0 3 0 0 0 1 11 6 61 90 66 78 2 0 3 84 0 0 11 100 100 99 100 100 100 100 100 100 100 100 100 90 100
100 100 6 46 100 98 65 69 22 8 87 2 0 0 0 0 0 0 0 5 36 18 4 0 0 5 0 22 100 24 81 100 100 80 100 100 100 100 100 100 100 100 100 100 58
100 49 5 90 100 100 94 91 94 100 66 60 33 1 0 0 0 0 2 4 0 0 0 23 2 12 0 0 59 58 100 100 100 100 83 100 97 100 100 100 100 100 100 100 100
100 98 26 97 100 100 100 76 91 100 99 76 57 49 5 2 2 2 5 5 4 3 0 1 4 61 88 22 18 12 100 100 100 100 100 49 100 100 100 100 100 100 100 100 100
100 62 59 100 100 100 100 100 100 100 60 6 72 10 86 77 6 11 5 5 5 5 2 1 86 48 3 3 89 100 90 100 100 100 100 100 100 100 100 100 100 10 100 100 98
100 100 100 100 100 100 77 5 86 100 100 100 97 15 100 91 92 100 90 100 100 100 100 100 60 6 30 0 2 100 100 100 100 100 100 100 54 100 100 100 96 100 100 100 100
99 100 100 100 100 100 99 100 66 44 93 70 98 79 87 94 49 5 5 5 5 22 4 5 80 100 13 11 1 2 8 100 100 100 100 100 100 100 100 100 100 100 100 100 100

GFSSW_prec_cloud_105.txt.gz
Cloud_Cover
100 100 100 100 68 60 59 100 63 94 6 4 5 8 5 24 14 3 0 5 0 0 0 0 0 0 0 0 0 0 0 0 0 0 0 0 2 3 0 0 89 72 5 0 0
99 100 100 100 100 100 100 100 100 100 100 76 77 84 99 100 99 5 63 7 5 1 0 0 0 0 0 0 0 0 0 0 0 0 0 0 0 1 0 0 59 100 98 2 0
98 100 100 100 89 61 77 85 90 100 100 99 100 100 100 84 50 50 55 18 4 0 0 0 0 0 0 0 0 0 0 0 0 0 0 0 0 0 0 0 3 100 100 15 0
4 83 100 100 100 100 100 100 44 97 100 100 100 100 39 100 100 80 22 5 3 5 1 2 3 2 0 0 0 0 0 0 0 0 0 0 0 0 0 0 0 49 100 67 1
3 10 81 100 100 100 100 100 97 100 100 100 100 100 100 100 76 5 5 5 5 9 85 41 5 4 0 0 0 0 0 80 51 75 69 0 0 0 0 0 0 19 100 100 8
5 56 31 84 100 100 100 100 100 100 100 100 100 100 100 96 100 100 100 5 5 2 6 74 4 2 5 5 4 0 41 22 90 100 6 3 0 0 0 0 0 3 100 100 95
18 5 5 60 100 100 100 100 100 100 100 100 100 100 100 98 98 73 100 81 94 47 5 5 4 3 0 5 2 8 43 14 100 100 41 62 0 0 72 5 0 0 100 100 94
100 99 99 100 100 98 100 100 100 100 100 100 100 100 100 100 100 100 100 100 96 96 10 16 5 6 56 4 1 1 0 0 16 5 5 85 1 5 100 8 2 2 96 100 100
100 100 86 99 100 100 100 100 100 100 100 100 100 100 100 100 100 100 99 98 100 94 100 100 99 99 32 5 0 0 0 0 0 0 0 79 17 0 69 5 3 5 98 45 99
100 100 100 100 100 100 100 100 100 100 100 100 100 100 100 100 100 100 100 100 100 100 100 100 100 100 93 5 0 0 0 0 0 0 0 0 1 91 23 37 54 13 100 5 100
100 100 100 100 100 100 100 100 100 100 100 100 92 90 100 97 100 100 100 100 100 100 100 87 13 56 15 5 5 0 0 0 0 0 0 0 0 5 99 100 96 89 99 82 100
100 100 100 100 100 100 100 100 100 100 100 100 100 100 100 97 92 100 100 100 100 100 100 100 98 100 63 11 2 0 0 0 0 0 0 0 0 5 44 60 76 100 92 99 49
100 100 100 100 100 100 100 100 100 100 100 100 100 100 100 100 100 100 100 100 100 100 100 100 72 10 5 3 2 0 0 0 0 0 0 0 0 1 93 92 71 100 100 36 94
100 100 100 100 100 100 100 100 100 100 100 100 100 100 100 100 100 100 100 100 100 100 100 34 99 22 4 1 0 0 0 0 0 0 0 0 0 5 99 72 89 100 66 67 100
100 100 100 100 100 100 100 100 100 100 67 100 96 100 100 100 100 100 100 100 100 98 100 30 6 5 0 0 0 0 0 36 58 1 0 0 3 5 100 99 100 100 100 100 100
100 100 100 100 100 100 100 100 100 100 100 100 79 100 79 100 100 100 100 100 100 100 100 77 91 4 0 0 0 0 0 0 37 26 4 3 76 0 100 95 100 100 100 100 100
100 100 100 100 100 100 100 100 100 95 100 100 100 99 8 14 60 93 34 6 13 14 7 5 1 0 0 0 0 0 0 3 32 5 0 13 98 0 94 100 100 100 100 100 100
100 100 100 100 100 100 100 89 99 100 100 100 100 75 34 16 42 99 100 43 1 23 2 0 0 0 1 2 0 0 0 3 19 5 0 2 100 7 100 100 100 100 100 100 100
85 91 98 91 65 30 98 94 71 49 94 100 100 100 100 6 87 91 12 5 99 1 1 0 5 0 0 5 40 2 0 0 92 5 0 22 96 100 69 100 100 100 100 100 92
54 6 7 5 5 46 100 79 1 1 8 0 18 100 100 95 32 99 100 86 100 1 0 0 5 0 1 2 12 41 20 0 60 100 57 100 100 100 100 100 100 100 100 100 100
6 94 2 3 16 100 100 79 5 5 5 4 0 0 82 61 4 86 74 19 27 72 2 70 10 0 1 90 100 61 5 0 39 68 76 100 100 100 100 100 100 100 100 100 98
83 96 3 26 98 100 100 8 2 0 0 12 95 6 0 15 0 0 0 38 100 100 100 3 4 0 10 100 96 89 100 60 97 1 0 98 100 100 100 100 100 100 100 100 100
100 100 1 4 100 86 97 8 4 0 0 98 100 2 0 0 0 0 0 3 100 83 98 13 0 2 0 11 100 6 86 100 32 17 0 28 100 100 100 100 100 100 100 100 100
99 82 5 13 43 82 100 72 66 42 4 73 7 57 3 0 0 0 0 0 1 5 17 0 0 0 16 0 8 3 74 100 100 100 76 87 100 100 100 100 100 100 100 100 100
100 59 25 38 58 43 100 65 100 100 80 89 11 5 0 2 73 12 0 0 0 0 0 0 1 0 0 0 0 5 100 100 100 100 100 100 100 100 100 100 100 100 100 100 100
100 97 9 5 5 92 100 100 100 100 100 100 6 23 97 74 44 12 1 5 4 1 24 91 5 3 0 0 0 4 98 100 91 72 100 100 100 100 100 100 100 100 100 100 100
100 39 100 99 100 100 100 100 100 100 100 98 100 98 99 98 64 77 49 4 2 0 10 5 35 41 4 1 0 0 43 11 18 97 100 100 100 100 100 100 100 100 92 54 90

GFSSW_prec_cloud_108.txt.gz
Cloud_Cover
100 100 100 100 85 100 100 100 100 100 100 100 100 98 74 26 6 16 5 5 4 5 0 2 1 0 0 0 0 0 0 0 0 0 0 0 0 0 0 0 0 0 0 0 0
28 80 100 100 92 97 100 52 100 100 100 100 100 100 100 100 83 36 8 55 82 80 66 4 3 0 0 0 0 0 0 0 0 0 0 0 0 0 0 0 0 0 0 0 0
96 78 30 93 99 100 100 100 100 100 100 100 100 100 97 97 100 86 99 100 100 100 50 4 2 4 0 0 0 0 0 0 0 0 0 0 0 0 0 0 0 0 0 0 0
2 65 37 41 36 12 4 42 28 100 100 87 100 100 100 100 100 100 100 100 100 100 100 76 2 3 3 0 0 0 0 0 2 0 0 0 0 0 0 0 0 0 0 0 0
99 85 49 80 14 5 5 2 0 33 88 100 100 100 100 100 100 100 100 100 100 100 100 100 83 10 10 23 2 4 1 0 3 0 4 0 2 0 1 1 30 60 3 0 0
100 100 100 100 100 95 17 5 4 1 65 91 78 100 100 100 100 100 100 100 100 100 100 100 100 86 100 100 46 4 5 4 2 4 5 0 3 1 0 0 0 5 3 0 0
71 53 8 13 97 100 100 100 97 8 5 83 99 89 100 100 100 100 100 100 100 100 100 100 100 100 100 100 100 20 7 5 9 11 42 0 0 0 0 0 0 0 0 0 0
71 85 100 100 72 90 94 100 100 100 52 82 77 100 100 100 100 100 100 100 100 100 100 100 100 100 95 100 100 100 100 100 100 100 66 0 0 0 0 0 0 1 23 1 0
74 97 98 99 100 100 100 98 90 100 100 85 48 100 100 100 100 100 100 100 100 100 100 94 31 100 100 100 100 100 100 100 100 98 7 0 0 0 0 0 0 4 94 23 0
100 100 100 100 73 64 62 100 92 49 86 100 100 87 100 100 100 100 100 100 100 100 100 100 100 100 100 100 100 100 92 100 100 100 5 5 0 0 0 0 0 6 96 81 6
90 100 100 100 100 100 95 100 100 98 98 100 100 100 96 100 100 100 100 100 100 100 100 99 84 76 100 100 91 100 82 100 100 100 5 3 0 0 0 0 0 3 88 14 5
65 100 100 100 74 100 62 100 100 84 53 97 100 100 100 99 100 100 100 100 100 100 100 97 80 100 100 99 100 100 100 100 98 58 0 0 0 0 0 0 0 1 40 33 95
100 100 100 100 100 100 100 100 100 100 15 100 100 100 100 100 100 100 100 100 100 100 100 97 84 100 100 100 100 90 55 6 2 3 0 0 0 0 0 0 0 0 96 52 100
100 100 100 100 100 100 100 100 100 100 100 88 100 100 100 100 100 100 100 100 100 100 100 100 100 100 100 100 100 81 70 5 0 0 0 0 0 0 0 0 0 1 96 100 98
99 100 100 100 100 100 100 100 100 100 57 100 100 100 100 100 100 100 100 100 100 100 100 100 100 100 100 100 100 62 21 5 0 0 0 0 5 0 0 0 0 5 100 100 100
100 69 94 100 100 98 100 100 100 96 97 100 100 77 82 100 100 100 100 100 100 99 86 97 100 100 100 77 28 36 5 2 0 0 0 0 2 3 0 0 0 73 100 100 100
100 100 100 100 100 100 100 100 78 76 100 100 99 42 100 99 100 100 100 100 100 100 100 100 100 100 55 12 6 5 5 0 0 0 0 0 0 0 0 0 0 83 99 87 21
100 100 100 100 100 100 100 100 100 100 100 100 100 100 100 100 86 100 100 100 100 100 100 100 100 100 100 97 88 41 6 4 4 0 0 0 1 0 0 0 0 28 97 17 82
9 10 26 5 39 36 74 100 100 100 100 100 100 100 100 100 94 100 76 100 100 100 55 54 3 64 92 8 5 5 5 3 8 3 0 1 0 0 0 0 5 100 100 97 100
7 15 0 1 4 8 91 10 26 97 94 95 100 100 100 100 100 100 100 100 100 100 99 74 66 28 50 96 100 72 5 4 15 44 2 0 0 0 3 28 100 100 100 45 70
5 47 4 4 5 87 87 5 3 2 0 4 2 47 42 39 97 100 100 92 100 100 98 24 45 6 5 29 46 42 45 84 14 81 15 3 4 1 20 100 100 100 100 39 97
43 74 93 96 84 98 100 5 5 5 5 5 5 0 7 4 54 84 100 97 45 67 100 93 30 0 3 5 2 5 100 100 100 16 2 5 1 26 94 67 100 100 100 86 100
93 98 0 2 48 82 82 53 84 72 6 27 26 80 24 58 42 100 100 40 5 70 8 12 3 0 0 0 15 100 100 100 100 93 89 80 13 88 100 100 100 100 100 100 100
86 67 5 53 60 24 93 82 26 98 8 100 69 85 38 33 4 1 98 100 100 100 100 78 1 0 0 0 0 40 100 98 52 63 14 51 45 97 100 100 100 100 100 100 75
100 72 6 60 78 93 100 63 93 100 67 100 14 100 83 4 0 0 0 13 66 100 84 33 25 0 0 0 0 0 13 100 100 100 5 89 100 100 100 100 100 100 100 100 100
88 95 12 69 5 83 100 100 100 100 100 100 80 44 6 5 3 0 0 0 0 0 0 0 0 0 0 0 0 0 0 23 42 100 97 100 100 100 100 100 100 100 100 100 100
99 68 100 9 5 33 91 100 100 100 100 100 100 100 100 60 10 26 24 0 3 2 0 0 1 4 1 0 1 0 0 0 0 83 100 100 100 100 100 100 100 100 100 100 100

GFSSW_prec_cloud_111.txt.gz
Cloud_Cover
89 96 59 100 100 69 97 49 98 90 88 100 100 100 100 100 100 100 100 100 100 93 10 7 5 3 5 5 5 0 0 3 0 0 0 0 0 0 0 0 0 0 0 0 0
31 33 100 100 97 55 82 100 100 100 100 100 98 100 100 100 100 100 100 100 100 100 74 16 42 79 100 47 4 0 0 5 0 0 0 0 0 0 0 0 0 0 0 0 0
0 0 0 36 92 100 92 100 100 100 100 100 100 100 100 100 100 100 100 100 100 100 100 37 38 99 100 100 99 3 1 5 5 2 0 0 0 0 0 0 0 0 0 0 0
1 0 2 5 5 5 5 8 92 25 30 67 82 100 100 99 100 97 100 100 100 100 100 100 100 100 100 100 100 16 9 88 29 64 41 0 0 0 0 0 0 0 0 0 4
88 5 4 0 2 3 10 5 6 10 78 38 5 2 5 25 95 6 100 100 100 100 100 100 100 100 100 100 100 100 100 100 100 100 84 5 4 2 16 0 0 0 0 0 0
5 62 68 5 2 2 4 4 5 33 5 94 100 25 22 24 0 4 67 100 100 100 100 100 100 100 100 100 100 100 100 100 100 100 100 14 50 70 56 3 0 0 0 0 0
98 5 86 99 85 5 20 19 5 5 5 5 6 88 100 94 2 5 82 63 100 100 100 100 100 100 100 100 100 100 100 100 100 100 26 9 92 86 32 5 5 3 0 0 0
100 98 100 100 100 100 61 52 6 42 71 10 49 55 46 100 72 32 5 72 100 98 100 100 100 100 100 100 100 100 100 100 100 61 100 12 30 100 5 5 60 5 5 0 0
100 100 100 100 60 7 98 100 100 50 10 24 81 84 53 100 27 21 94 100 98 83 100 100 99 100 100 100 100 100 100 100 91 83 69 5 5 100 10 20 45 22 4 0 0
98 100 100 96 68 5 53 100 100 100 100 100 100 100 78 87 100 100 34 100 100 100 100 100 100 89 100 100 100 100 100 46 95 100 99 36 50 16 28 85 92 5 5 3 0
79 100 80 100 89 6 60 100 58 37 100 90 71 100 100 100 100 100 100 46 100 100 100 100 100 88 100 100 100 83 96 100 100 100 69 36 4 5 84 95 62 5 17 1 0
100 100 100 100 4 10 8 72 78 66 79 100 100 83 100 95 54 100 100 100 100 100 100 74 78 100 100 100 100 98 100 100 100 100 12 43 5 100 99 100 11 2 3 0 0
100 61 100 100 8 4 41 73 100 97 16 100 100 100 100 100 100 100 100 98 100 100 100 99 69 100 100 100 100 100 100 99 100 100 66 82 15 100 77 82 0 0 0 0 0
5 3 5 93 97 49 5 92 61 100 97 58 100 100 100 100 96 100 100 100 80 100 100 100 100 100 100 100 100 100 100 100 100 87 100 96 4 78 100 20 0 2 0 0 0
96 100 98 100 98 100 100 100 98 100 96 100 100 100 100 100 100 100 100 100 99 100 100 100 100 100 100 100 100 100 100 100 96 34 13 99 19 94 92 5 2 4 0 0 0
82 100 100 99 100 100 100 100 78 93 62 100 100 100 100 100 100 100 100 100 100 100 100 100 100 100 100 100 100 100 100 100 100 100 8 100 12 5 3 20 1 2 0 0 5
62 100 100 100 100 44 100 100 100 100 100 93 100 100 100 100 100 100 100 100 100 100 99 100 100 100 100 100 100 100 100 100 99 100 76 86 0 3 31 1 0 0 0 0 91
14 15 6 14 20 61 69 90 87 35 100 100 50 34 63 92 100 100 100 100 100 100 100 100 100 100 100 100 100 100 100 100 92 84 34 4 0 4 0 0 0 0 0 0 70
5 10 5 0 1 1 3 13 6 37 32 98 100 100 100 15 10 79 100 99 100 100 100 100 100 100 100 100 100 100 100 100 100 25 10 4 1 5 0 0 0 0 1 6 10
0 7 0 5 3 5 53 9 0 0 0 0 7 39 52 88 100 100 100 98 100 100 100 100 100 100 100 100 100 100 100 100 100 79 10 4 1 0 0 0 30 34 81 40 62
3 5 12 5 5 70 68 5 4 0 1 4 4 5 1 6 100 100 100 100 99 100 100 98 47 91 100 100 100 100 100 98 95 96 5 2 0 0 5 5 5 2 27 30 100
36 18 88 89 76 98 75 5 5 13 5 49 5 0 0 0 2 81 100 100 100 100 100 100 90 69 100 100 100 99 100 60 98 100 48 94 12 0 0 0 5 5 4 39 100
43 5 61 87 53 74 5 49 99 100 81 46 5 1 3 43 92 4 56 100 100 100 100 100 100 100 100 100 100 84 58 13 5 32 74 100 18 4 37 96 13 10 100 100 100
50 38 22 70 61 81 69 10 49 65 24 17 5 3 5 7 100 33 3 100 100 100 100 100 100 17 5 46 100 99 1 8 56 6 60 100 1 0 78 3 1 100 100 100 100
81 48 37 69 82 76 97 5 5 74 47 61 32 98 88 79 100 32 5 2 82 100 100 100 54 65 5 4 6 6 5 1 26 5 95 90 19 1 1 100 98 100 100 100 100
88 73 77 6 10 5 5 27 5 69 100 99 11 47 89 100 91 14 2 0 0 3 100 100 92 7 100 15 3 0 0 0 0 0 67 35 2 6 16 100 100 100 100 100 100
74 96 97 74 5 24 14 5 99 100 90 100 100 100 100 94 96 96 69 28 3 0 2 61 49 62 22 0 5 2 0 0 0 0 2 43 2 51 15 100 100 100 100 100 100

GFSSW_prec_cloud_114.txt.gz
Cloud_Cover
78 5 1 0 42 37 99 100 100 100 100 83 87 91 87 77 100 100 100 100 100 100 100 100 100 96 94 69 5 5 5 100 100 28 0 0 0 0 0 0 0 0 0 0 0
86 29 65 80 7 12 80 100 100 100 100 100 100 100 100 100 100 100 100 100 100 100 100 100 100 100 100 100 39 6 7 76 100 72 14 2 0 0 4 2 0 0 0 0 0
100 100 100 63 16 7 2 6 90 100 100 100 100 100 100 100 100 100 100 100 100 100 100 100 100 100 100 100 93 100 71 100 100 100 100 39 0 3 62 14 0 4 5 0 0
5 26 64 82 96 9 32 21 5 1 76 100 100 100 100 100 100 100 100 100 100 100 100 100 100 100 100 100 100 86 100 100 100 100 100 60 9 100 19 53 38 24 1 0 0
9 2 5 5 11 52 99 59 31 6 3 2 5 20 99 97 92 5 78 22 65 92 100 100 100 100 100 100 100 100 100 100 100 100 100 100 100 88 33 78 38 31 6 4 3
5 3 2 5 4 5 5 96 25 42 49 9 14 18 5 16 36 6 5 6 5 1 5 5 5 84 99 100 100 100 100 100 100 100 100 100 100 100 100 34 23 95 5 4 0
5 5 5 5 0 5 5 6 98 38 92 64 82 96 62 94 5 5 5 4 5 98 34 5 5 2 9 61 100 100 100 100 100 100 100 100 100 100 100 79 100 7 5 4 3
0 9 61 5 5 4 5 5 5 20 46 98 100 88 100 100 48 8 23 47 16 97 40 5 3 2 5 65 83 100 100 100 100 100 100 99 89 100 100 100 100 76 47 20 70
6 5 39 5 5 5 7 5 5 15 75 100 90 96 89 100 100 45 100 100 97 55 96 99 7 37 7 0 50 100 100 100 100 100 46 79 100 100 100 56 16 94 100 98 82
32 74 5 2 5 4 5 5 5 8 65 100 100 77 87 33 100 100 100 88 100 100 100 100 35 5 5 78 69 100 95 34 85 100 100 100 100 100 100 7 97 100 100 100 8
54 44 5 5 5 5 5 16 17 78 100 100 100 100 52 85 5 99 100 100 100 100 100 100 57 5 71 100 100 39 100 87 100 100 100 96 8 86 99 100 100 100 100 25 5
70 86 100 34 75 38 19 69 99 90 99 100 98 100 90 26 2 96 100 100 100 100 100 88 44 56 91 100 100 97 42 97 100 100 77 58 7 6 100 100 100 100 100 3 5
57 63 19 5 5 14 30 28 14 20 93 97 97 41 100 5 2 100 100 89 100 100 100 99 69 97 100 100 100 98 98 98 100 100 100 53 73 100 100 100 100 100 21 5 5
100 100 94 5 5 5 1 5 6 7 22 0 4 97 66 8 43 88 100 100 100 96 100 61 67 98 100 67 100 100 96 100 100 99 99 96 30 100 100 100 100 88 5 5 4
94 68 16 5 4 17 95 96 100 28 52 99 28 44 100 100 100 100 100 100 100 100 100 100 100 100 100 100 100 100 100 100 88 81 90 98 46 96 100 100 99 97 69 5 0
100 6 5 3 5 61 94 26 74 55 97 100 100 10 93 100 100 100 100 100 100 100 100 100 100 100 100 100 100 100 100 100 100 94 11 100 100 96 100 100 88 100 100 3 4
25 5 6 24 55 67 75 80 35 23 32 16 75 98 89 89 100 78 100 100 100 100 100 100 100 100 100 100 100 100 100 100 100 100 93 100 81 46 100 100 100 95 35 4 25
5 5 6 5 5 5 3 4 0 0 0 0 3 3 20 100 100 100 100 100 100 100 100 100 100 100 100 100 100 100 100 98 63 76 63 100 46 92 100 100 99 15 5 11 87
5 6 5 3 0 0 4 1 0 0 0 0 0 0 0 3 68 100 100 100 100 72 69 100 100 100 100 100 100 100 100 100 10 11 5 90 100 100 100 99 20 5 3 19 5
99 78 5 0 1 0 5 1 0 0 0 0 0 0 5 0 0 4 62 100 100 100 92 97 98 100 100 100 100 100 100 100 100 100 85 44 49 94 100 82 6 5 4 5 3
0 5 14 28 5 27 32 5 3 0 5 5 6 5 5 3 0 0 0 1 71 100 100 100 100 100 100 100 100 100 100 100 100 87 11 23 75 59 100 100 64 4 4 5 0
1 5 22 6 44 57 42 5 5 5 1 25 5 5 5 5 66 5 0 0 5 90 100 96 100 100 100 100 100 100 100 100 100 100 100 100 99 100 100 77 2 3 0 0 0
71 19 4 72 24 53 6 5 4 4 5 12 5 15 5 1 51 5 25 16 48 100 100 100 100 98 100 100 100 100 100 100 100 59 5 19 2 30 17 21 22 0 0 0 0
16 5 5 12 5 59 98 5 5 5 5 3 3 5 5 5 5 8 29 88 46 59 100 100 100 100 100 100 95 100 100 100 100 46 5 2 0 5 3 29 56 0 2 0 2
64 38 66 83 17 52 96 5 5 5 4 38 13 6 98 86 11 50 62 66 2 0 15 100 100 100 100 100 100 98 100 100 98 26 4 2 0 6 4 67 9 0 0 0 90
87 64 62 13 5 5 5 5 2 92 84 76 96 93 99 97 76 100 100 99 100 37 0 3 100 100 100 100 100 100 100 100 100 3 0 0 0 0 0 96 5 5 2 2 100
24 14 76 13 7 30 38 90 37 100 78 100 100 100 100 100 100 100 96 95 82 78 81 0 0 90 95 100 100 7 24 20 0 0 0 0 0 0 1 99 18 59 30 96 100

GFSSW_prec_cloud_117.txt.gz
Cloud_Cover
9 63 94 100 100 100 83 15 15 0 4 47 100 100 99 96 96 69 64 59 46 34 5 51 52 64 65 74 90 38 5 5 88 25 5 1 0 3 2 2 0 0 1 2 0
0 2 11 77 8 64 53 55 77 11 5 3 56 100 100 100 100 95 82 100 100 78 90 100 100 100 100 98 74 68 34 97 99 74 24 5 4 5 5 99 39 0 5 6 0
5 4 0 0 0 0 2 5 5 5 7 4 6 80 98 100 100 100 98 100 100 100 100 100 100 100 100 100 100 99 36 100 100 100 100 100 99 8 5 87 58 5 5 5 0
5 5 0 5 3 0 0 0 0 6 5 60 16 12 98 100 66 100 100 100 100 100 100 100 100 100 100 100 100 36 100 100 100 100 100 100 98 100 33 100 100 100 100 16 1
5 1 7 5 0 3 3 1 1 1 4 4 26 77 92 71 76 39 100 100 100 96 100 62 100 100 100 100 100 100 100 100 100 100 99 100 100 100 77 100 100 96 98 96 5
5 5 4 4 5 4 5 0 1 0 0 0 44 70 5 81 100 100 97 35 38 28 35 43 72 18 28 57 100 100 100 100 100 100 100 100 100 98 100 100 38 100 100 98 21
16 5 5 5 18 69 5 6 5 5 0 0 14 15 11 86 7 100 100 100 94 10 21 5 5 28 32 12 4 1 1 6 66 100 100 100 100 100 100 100 100 100 100 92 16
82 58 34 9 57 23 22 5 73 17 29 5 14 10 5 65 99 68 40 96 100 100 100 97 51 4 9 5 5 5 5 23 73 100 100 100 98 100 100 100 100 100 99 92 100
64 20 5 5 15 5 44 43 20 5 0 4 4 5 5 58 49 98 100 100 100 100 100 100 94 35 5 5 6 8 96 90 38 100 84 55 100 100 100 100 100 100 100 100 100
100 73 5 5 5 11 13 4 0 1 0 3 0 19 3 1 7 56 86 100 100 100 100 100 100 97 61 54 45 100 100 44 6 24 9 5 32 48 100 100 100 100 100 100 100
95 45 20 4 5 5 5 1 5 2 5 0 0 0 5 85 32 100 100 100 100 100 100 100 90 21 100 100 100 100 44 5 5 55 73 66 32 5 58 100 100 100 100 100 58
5 5 2 5 8 5 4 5 45 9 86 24 5 4 5 8 14 95 100 100 100 100 100 100 100 86 100 100 99 100 100 97 39 98 70 52 73 5 89 90 100 100 100 100 13
5 24 44 100 10 12 11 64 98 100 100 67 70 2 1 1 12 80 100 100 100 100 100 99 100 100 100 100 100 100 100 100 100 100 94 12 12 5 96 100 100 100 100 100 11
100 99 100 29 23 5 4 5 5 1 0 0 0 1 0 0 0 2 4 25 96 100 100 69 96 100 100 100 100 100 100 100 100 100 68 4 5 42 100 100 100 100 100 98 13
100 85 9 100 98 13 8 5 5 0 0 0 5 74 99 74 49 2 2 5 56 91 100 38 85 100 100 99 100 100 100 100 96 25 94 18 3 95 100 100 100 100 100 100 100
100 74 5 36 97 65 27 6 5 5 5 4 5 5 5 18 39 40 36 7 28 66 100 63 100 100 100 100 100 100 100 100 100 100 5 78 12 10 68 100 100 100 100 69 4
98 10 5 0 4 76 95 14 5 5 1 0 0 0 0 3 5 0 17 99 45 30 100 100 100 100 100 100 100 100 100 100 100 62 19 79 60 87 100 100 100 100 100 22 78
78 5 4 4 15 98 100 76 5 0 0 0 0 0 0 0 0 0 0 8 84 35 55 100 100 100 100 100 100 100 100 100 100 100 100 100 95 41 97 100 100 100 100 100 100
5 4 5 11 6 5 5 0 0 0 1 2 0 0 0 0 0 0 0 0 40 70 52 40 100 100 100 100 100 100 99 98 100 100 66 92 94 100 100 100 100 100 100 98 100
5 5 6 5 4 0 3 0 0 1 1 2 3 0 5 1 0 0 0 0 0 55 100 54 33 100 100 100 100 100 100 100 100 100 44 62 79 100 100 100 100 100 100 100 100
5 5 5 5 1 5 7 4 1 0 5 5 5 14 5 22 4 5 0 0 0 1 100 87 79 94 100 100 100 100 100 100 100 100 94 23 97 99 100 76 81 100 41 5 5
5 5 5 0 11 23 24 5 5 0 0 1 5 6 22 10 39 11 1 0 0 0 0 42 93 100 100 100 100 100 100 100 100 100 99 10 36 100 84 67 61 56 9 5 6
56 6 1 0 5 5 5 5 4 13 5 5 5 5 5 30 87 5 4 3 5 4 96 5 59 46 100 100 100 100 100 100 100 100 100 99 100 100 90 6 15 30 9 29 100
12 8 4 5 5 43 70 5 5 1 0 0 5 5 25 59 49 46 5 0 5 5 4 4 15 100 100 100 100 100 100 98 100 91 75 10 32 8 11 5 72 100 100 100 100
53 12 34 61 6 5 5 5 5 5 1 26 24 98 100 99 42 86 22 5 0 60 5 1 2 38 100 100 100 100 92 48 24 14 29 5 1 5 5 5 36 88 14 6 47
35 9 15 5 5 5 5 5 5 14 98 25 98 100 100 100 100 100 100 28 5 62 17 57 2 0 18 100 100 100 100 100 88 100 3 0 0 3 0 1 5 5 0 5 31
55 8 5 5 5 9 6 5 14 99 22 50 100 100 100 89 61 73 100 61 5 5 5 6 6 4 1 79 100 52 100 91 45 25 59 2 0 0 0 0 0 5 8 99 19

GFSSW_prec_cloud_120.txt.gz
Cloud_Cover
0 0 0 0 2 5 5 4 43 92 100 10 4 1 2 3 7 66 96 24 4 45 45 51 48 19 5 5 5 5 2 6 82 100 98 5 0 0 0 0 4 6 5 4 66
0 0 4 2 0 0 1 0 0 2 10 48 24 65 69 66 19 1 76 100 97 51 49 28 40 50 12 45 13 5 17 89 100 100 74 5 2 0 0 0 5 6 5 5 3
5 5 4 5 5 5 5 4 4 5 5 2 2 0 2 4 18 13 4 8 90 100 100 84 100 74 100 100 100 99 39 100 70 100 100 95 82 29 5 5 5 5 5 5 0
0 46 20 54 16 32 5 5 5 5 5 5 13 18 5 4 2 5 5 5 25 6 100 100 100 100 100 100 100 100 100 100 100 100 100 100 100 28 100 100 88 5 5 5 5
5 5 5 59 99 11 5 46 5 5 4 15 6 15 5 5 12 5 5 5 22 23 29 10 98 64 100 100 100 100 100 100 100 100 100 100 100 100 54 80 100 64 5 5 44
8 5 5 5 5 3 5 4 4 0 2 1 15 7 4 66 8 5 3 5 5 4 7 76 5 70 100 78 100 93 100 85 100 100 100 100 100 100 100 100 25 5 48 19 5
2 0 2 5 5 1 0 0 1 1 5 5 7 5 5 5 12 33 3 5 9 8 52 55 97 100 6 21 14 52 62 68 6 12 14 100 100 54 100 100 100 100 99 60 14
5 18 29 27 6 13 5 0 5 2 7 64 18 14 70 35 26 38 83 6 7 4 54 32 98 100 100 84 80 5 23 33 71 96 100 7 2 2 29 5 55 72 96 100 100
79 96 100 47 16 84 66 22 5 94 96 97 78 21 5 38 10 5 2 4 22 63 51 89 89 99 98 100 100 100 95 76 100 10 40 5 5 5 5 76 96 100 100 97 88
97 69 11 70 39 96 84 68 70 8 19 26 42 5 5 5 1 0 0 0 0 10 40 100 100 99 96 100 99 100 100 100 100 70 34 5 8 43 53 6 97 100 100 100 100
81 86 16 13 98 64 16 15 16 5 5 4 5 4 0 0 0 0 4 5 5 5 5 8 48 36 98 100 100 100 100 100 100 100 100 100 92 76 5 5 48 100 100 89 20
78 26 5 46 60 65 11 1 0 1 2 3 0 0 0 5 72 37 15 40 100 100 67 6 100 100 100 100 100 100 100 100 100 100 100 100 100 21 25 82 89 90 100 100 98
24 86 6 5 7 6 2 5 5 5 5 1 0 0 0 0 0 0 0 8 5 6 66 64 49 66 100 100 86 98 100 100 100 100 100 99 100 100 43 78 49 89 100 100 100
13 6 5 26 10 30 25 2 5 3 0 0 0 0 0 0 0 0 0 0 0 0 2 5 54 17 100 98 100 100 100 100 100 100 100 95 92 100 100 100 100 99 100 96 90
93 91 5 4 6 5 5 6 5 27 0 0 3 5 5 5 2 1 0 0 4 0 0 2 5 100 100 32 100 100 100 100 100 100 100 51 29 100 100 100 100 100 100 91 22
76 23 47 21 47 56 47 5 5 2 0 3 26 99 48 5 5 5 0 0 0 0 1 1 5 31 90 100 100 100 100 100 100 100 100 100 90 100 100 100 100 100 100 95 49
100 99 92 94 98 98 31 5 5 4 0 5 5 5 2 1 0 0 0 0 0 0 32 80 8 8 85 100 100 100 100 100 100 100 100 100 100 100 99 100 100 100 100 100 57
100 100 100 100 99 100 70 5 2 0 0 0 0 0 0 0 0 0 0 0 2 0 0 11 96 93 36 68 100 100 100 100 100 100 100 100 100 100 100 100 100 100 100 79 13
100 100 100 100 72 7 13 5 0 0 0 0 0 0 0 0 0 0 0 0 2 6 4 1 52 100 60 100 100 100 100 100 100 100 100 100 91 100 100 100 100 100 100 100 100
100 100 100 71 9 14 76 2 1 0 0 1 0 0 0 1 1 2 0 0 0 5 72 69 7 31 83 99 93 100 100 100 100 100 100 100 100 100 58 100 100 100 100 100 100
100 100 68 38 78 28 5 0 0 1 0 1 0 4 5 47 24 5 4 0 3 2 0 38 100 5 69 67 100 100 100 100 100 100 100 100 100 100 100 100 100 100 100 100 100
100 67 20 100 97 5 3 1 0 0 2 3 4 76 99 100 100 54 5 5 4 4 5 42 60 32 77 100 100 100 100 100 100 100 100 100 100 100 100 88 48 74 55 100 100
24 80 100 51 5 4 3 5 5 40 5 22 14 35 74 89 99 61 5 4 5 5 95 68 66 38 92 36 94 100 100 100 100 100 100 100 100 100 99 61 6 5 16 41 98
97 100 98 26 11 14 8 4 2 2 0 4 12 74 97 100 97 50 57 100 59 5 100 6 85 100 100 100 100 100 100 100 97 100 100 100 100 100 8 5 1 1 5 5 10
88 87 40 57 70 5 4 2 73 83 29 69 90 100 100 95 98 100 100 96 99 2 5 69 83 100 100 14 100 99 100 100 100 100 57 60 44 100 100 71 5 5 5 12 25
96 50 42 5 5 5 3 43 100 100 94 63 100 100 97 100 100 100 73 98 86 57 100 69 7 100 84 5 55 100 98 100 100 100 99 91 11 15 5 12 42 5 5 5 5
80 33 26 3 5 5 9 11 10 86 77 87 77 91 99 72 11 10 78 86 71 79 74 52 58 100 100 100 96 33 3 100 100 54 47 8 1 0 0 1 5 5 5 5 14

GFSSW_prec_cloud_123.txt.gz
Cloud_Cover
7 7 4 1 3 7 0 1 1 4 5 4 6 5 4 5 4 5 4 2 3 1 0 3 3 3 5 67 81 66 21 83 100 16 12 0 0 0 0 0 0 18 5 3 0
5 5 5 5 0 5 5 2 0 0 7 23 12 21 3 4 5 4 5 4 2 3 2 0 54 46 4 7 5 24 5 14 48 15 5 4 0 0 0 3 0 5 60 6 5
5 5 25 5 30 43 5 5 3 4 2 1 0 0 0 0 0 0 0 0 0 0 0 2 5 0 33 57 5 9 21 78 58 58 33 96 12 76 3 1 0 0 1 5 29
8 31 35 27 97 5 64 5 5 12 8 5 8 6 5 18 5 5 4 1 2 1 2 0 0 2 5 2 94 44 95 87 100 100 100 100 100 100 100 100 100 100 51 0 8
100 61 91 94 100 100 62 5 14 88 53 6 5 10 8 5 5 4 6 26 5 5 9 5 5 4 0 1 4 50 100 100 100 100 100 100 100 100 100 100 100 86 24 8 5
100 100 100 100 13 70 27 51 5 16 19 19 5 5 9 6 22 7 7 40 93 37 45 24 36 11 5 5 5 5 5 39 100 100 100 100 100 100 100 100 100 100 85 84 63
100 100 100 100 100 97 80 33 6 14 77 62 5 4 5 5 6 5 5 31 27 40 6 98 65 90 43 5 5 5 4 4 65 100 100 100 100 100 100 100 100 100 100 100 95
100 99 100 100 100 100 95 100 100 100 83 97 14 0 0 0 4 5 93 93 39 74 94 94 24 56 9 90 5 11 24 21 62 86 98 90 95 100 92 3 3 42 5 77 82
100 100 97 100 100 100 100 100 100 100 20 3 1 5 3 14 11 22 96 71 5 5 7 5 5 4 4 40 76 9 16 72 100 98 100 100 100 29 26 56 5 20 3 1 1
100 100 100 100 100 95 26 12 22 20 5 18 6 5 5 80 100 100 63 5 5 5 2 0 0 0 0 54 15 99 100 100 87 100 100 100 100 100 90 17 98 76 5 6 5
100 100 100 100 100 23 9 5 18 5 9 49 11 80 23 5 6 5 5 0 0 0 0 0 0 0 5 39 99 100 100 99 100 100 100 99 100 100 100 100 57 9 5 10 5
100 100 100 100 100 100 100 100 99 12 12 36 74 9 5 2 4 1 0 0 0 0 0 0 0 3 5 6 66 100 100 100 100 100 100 100 80 100 100 100 100 100 96 44 7
100 100 100 100 100 100 100 100 96 38 54 5 4 1 0 0 0 0 0 0 0 0 0 0 0 5 16 5 15 85 70 100 100 100 100 100 100 100 100 100 100 100 100 100 100
100 100 94 84 63 86 35 18 18 5 5 1 0 0 0 0 0 0 0 0 0 0 0 0 0 0 4 3 49 56 94 100 100 100 100 100 100 100 100 100 100 100 100 100 99
57 100 26 5 6 15 8 5 4 5 5 0 0 0 0 2 0 0 0 3 5 9 5 2 0 5 0 14 100 3 100 100 100 100 100 100 100 100 100 100 100 100 100 100 100
71 61 98 85 13 5 5 5 5 4 2 3 5 5 5 4 1 0 0 0 4 4 2 4 4 2 5 3 75 73 100 100 98 100 97 100 100 100 100 100 100 100 100 100 100
93 97 46 85 88 23 4 5 5 4 5 5 5 5 5 0 0 0 0 0 0 0 0 0 2 99 90 67 69 54 100 100 100 100 19 100 100 100 100 100 100 100 100 100 100
100 100 100 100 30 49 5 5 5 17 31 5 5 5 5 0 0 0 0 0 0 0 4 4 0 34 28 57 100 100 100 100 100 100 100 100 100 100 100 100 100 100 100 100 100
100 100 100 100 93 76 33 7 40 61 97 100 11 5 0 0 0 0 0 0 0 1 53 100 59 100 97 93 98 47 84 47 100 100 100 100 100 100 100 100 100 100 100 100 100
100 100 100 100 88 99 94 93 70 100 72 21 4 0 0 0 1 5 5 1 2 5 61 100 100 89 93 82 97 90 69 100 100 100 77 100 100 100 100 87 100 100 100 100 100
100 100 100 100 99 100 78 100 84 46 16 5 0 0 0 4 57 100 99 87 75 100 100 92 84 60 84 90 88 70 99 98 100 98 100 100 100 100 100 100 100 100 100 100 100
100 100 100 100 100 100 54 100 83 5 0 3 2 6 81 99 100 100 100 100 100 100 100 100 97 100 100 100 51 100 100 100 100 67 100 100 100 100 100 100 100 100 100 91 100
100 100 100 100 75 96 100 64 5 5 0 3 2 4 6 87 99 100 100 100 100 100 100 90 71 100 100 98 100 83 99 100 100 100 100 100 100 100 100 100 100 100 100 100 100
100 100 100 100 100 100 48 12 5 2 0 1 11 34 100 100 100 86 100 100 99 99 94 72 24 87 100 98 100 100 100 100 100 100 100 100 100 100 100 100 100 92 100 100 100
100 100 100 100 100 78 15 6 5 5 39 96 97 98 100 93 100 100 99 100 66 85 81 66 97 97 97 10 96 100 100 100 100 100 100 100 100 100 100 100 100 99 11 100 100
99 100 100 100 84 5 5 54 5 86 76 60 93 98 100 100 87 67 98 65 100 100 100 100 100 92 100 100 100 100 100 100 100 100 100 100 100 100 100 100 30 7 2 25 65
100 100 97 9 59 58 54 5 44 89 92 92 38 78 98 76 7 5 5 80 99 96 100 100 100 100 100 100 96 88 0 56 100 100 100 100 100 100 100 59 13 10 61 54 10

GFSSW_prec_cloud_126.txt.gz
Cloud_Cover
6 6 7 21 7 5 5 1 0 0 0 1 2 0 0 0 4 2 2 5 3 0 0 0 0 0 0 0 0 0 0 4 94 98 100 31 4 0 8 44 6 10 100 2 0
100 89 66 100 75 6 12 5 5 2 0 0 0 0 5 2 3 0 1 2 0 0 0 0 0 0 0 0 0 0 0 0 23 17 11 14 4 2 3 34 10 5 50 84 4
100 100 36 5 30 58 5 5 100 89 47 75 20 0 1 3 5 0 0 0 0 0 0 0 0 4 0 0 0 0 1 0 0 0 32 47 9 5 21 2 24 4 59 81 48
100 100 100 100 70 36 8 100 95 82 42 71 5 8 99 93 28 5 9 5 7 5 0 2 5 0 4 5 5 1 3 3 5 3 0 1 5 87 88 78 86 100 100 100 100
100 100 100 100 100 100 100 100 77 88 100 54 94 94 68 45 6 5 5 5 5 5 5 5 5 5 5 5 5 2 5 5 11 18 3 0 7 100 80 85 79 53 67 74 100
100 100 100 100 100 100 100 100 100 100 100 100 91 26 34 20 80 62 35 5 5 5 5 5 45 5 9 16 35 5 5 5 5 17 5 5 3 4 99 100 100 100 40 95 10
100 100 100 100 100 100 100 79 100 100 100 100 100 75 70 62 34 6 5 9 5 5 5 5 5 5 59 11 5 20 5 5 5 5 37 32 36 2 40 99 77 100 100 98 100
100 100 100 100 100 100 100 100 100 100 100 100 100 82 100 100 100 100 100 85 55 21 62 100 100 100 100 100 100 95 5 4 40 5 5 100 1 97 100 100 59 67 100 100 100
93 100 100 100 100 100 100 100 100 100 100 100 98 100 48 90 27 28 27 32 2 5 6 60 99 100 97 100 100 98 5 1 2 65 88 100 14 5 100 100 100 69 27 96 100
99 100 100 100 100 100 100 100 100 100 100 100 100 32 5 5 5 50 27 5 40 40 8 14 12 5 10 25 39 2 5 0 0 1 100 100 78 5 100 100 100 100 95 37 26
100 100 100 100 100 100 100 100 100 100 93 78 96 75 33 100 100 100 20 8 77 70 5 5 4 4 0 0 0 0 8 5 0 17 100 100 92 6 74 100 100 100 100 100 100
100 100 100 100 100 100 100 100 100 100 100 100 100 100 100 93 73 29 57 32 5 4 4 1 0 0 0 0 0 0 8 0 0 5 100 100 7 100 100 100 100 100 100 100 100
100 100 100 100 100 100 100 100 100 100 98 100 100 77 8 5 5 1 0 0 0 0 0 0 0 0 0 4 10 4 1 0 40 66 100 74 6 100 100 100 100 100 100 100 100
93 100 100 100 100 100 100 100 100 100 100 96 91 31 5 5 0 0 0 0 0 0 0 0 0 2 0 0 16 1 3 75 93 59 77 90 16 99 100 100 100 100 100 100 100
100 100 100 99 100 100 99 99 52 100 98 51 42 18 5 0 0 0 0 0 0 0 0 0 0 0 0 0 6 0 50 75 100 100 100 33 50 67 100 100 100 100 100 100 100
100 100 100 100 77 93 91 65 80 17 5 3 0 0 0 0 0 0 0 1 0 0 0 0 0 0 0 0 1 4 21 82 96 95 84 1 94 1 83 100 100 100 100 100 100
100 100 100 100 100 100 100 96 87 25 23 1 0 0 0 0 0 0 4 5 3 0 0 0 0 0 0 47 95 100 93 53 100 87 17 90 79 0 53 100 100 100 100 100 100
100 100 99 100 100 100 100 100 66 92 11 0 5 2 0 0 3 5 1 0 0 0 0 0 0 4 75 51 15 30 37 100 98 48 20 99 76 2 49 100 100 100 100 100 100
100 100 99 99 100 100 64 92 56 5 2 2 5 5 5 5 2 0 0 0 0 0 0 0 5 0 33 76 89 98 73 90 88 71 20 78 64 5 5 100 100 100 100 100 100
100 100 100 100 100 73 20 15 21 74 7 5 5 6 16 5 5 2 4 4 22 34 59 23 72 3 0 91 66 100 83 98 100 75 80 5 7 81 35 100 100 100 100 100 100
100 100 100 100 98 60 7 66 94 100 71 77 82 36 16 5 5 5 10 5 46 100 73 80 83 2 7 8 65 100 100 72 62 97 83 22 67 69 64 100 100 100 100 100 100
100 100 100 100 100 100 100 100 100 100 100 100 67 5 5 5 2 5 43 82 90 46 96 100 46 7 2 5 100 96 98 100 100 98 100 85 100 99 13 100 100 100 100 100 100
100 100 100 100 100 100 100 100 100 100 100 100 93 5 5 33 72 81 8 46 23 6 100 84 97 100 98 89 86 98 87 100 100 100 100 100 53 92 97 100 100 100 100 92 100
100 100 100 100 96 100 100 100 98 100 100 100 39 6 94 90 56 35 84 28 13 97 76 5 5 82 52 100 100 100 100 100 100 100 100 100 100 100 100 100 100 100 100 24 100
100 100 100 100 100 100 100 100 100 100 59 38 77 100 80 62 97 61 6 5 43 100 49 100 26 28 5 22 100 100 100 99 100 100 96 100 100 100 100 100 100 100 66 18 100
100 100 100 100 100 100 100 100 100 19 13 36 68 5 99 57 91 27 5 1 35 100 100 100 100 100 100 40 57 97 4 9 100 100 100 100 100 100 100 100 100 100 100 23 100
100 92 100 100 100 100 100 100 66 6 14 63 14 28 83 51 2 0 4 4 5 40 6 19 25 39 100 83 47 4 100 100 30 100 100 100 100 100 100 100 100 100 100 35 86